Time,TemperatureF,DewpointF,PressureIn,WindDirection,WindDirectionDegrees,WindSpeedMPH,WindSpeedGustMPH,Humidity,HourlyPrecipIn,Conditions,Clouds,dailyrainin,SoftwareType,DateUTC
2013-03-02 00:00:00,21.5,16.3,30.25,NNW,344,2.0,2.0,80,0.00,,,0.00,Wunderground v.1.15,2013-03-02 06:00:00,
2013-03-02 00:02:00,21.4,16.2,30.25,NNW,344,2.0,2.0,80,0.00,,,0.00,Wunderground v.1.15,2013-03-02 06:02:00,
2013-03-02 00:05:00,21.3,16.1,30.25,NNW,344,2.0,2.0,80,0.00,,,0.00,Wunderground v.1.15,2013-03-02 06:05:00,
2013-03-02 00:07:00,21.3,16.1,30.25,NNW,344,2.0,2.0,80,0.00,,,0.00,Wunderground v.1.15,2013-03-02 06:07:00,
2013-03-02 00:08:00,21.2,16.0,30.25,NNW,344,2.0,3.0,80,0.00,,,0.00,Wunderground v.1.15,2013-03-02 06:08:00,
2013-03-02 00:13:00,21.1,15.9,30.25,NNW,344,2.0,3.0,80,0.00,,,0.00,Wunderground v.1.15,2013-03-02 06:13:00,
2013-03-02 00:15:00,21.1,15.9,30.25,NNW,344,2.0,3.0,80,0.00,,,0.00,Wunderground v.1.15,2013-03-02 06:15:00,
2013-03-02 00:17:00,21.0,15.8,30.25,NNW,344,2.0,4.0,80,0.00,,,0.00,Wunderground v.1.15,2013-03-02 06:17:00,
2013-03-02 00:20:00,20.9,15.7,30.25,NNW,344,2.0,2.0,80,0.00,,,0.00,Wunderground v.1.15,2013-03-02 06:20:00,
2013-03-02 00:21:00,20.9,15.7,30.25,NNW,343,2.0,2.0,80,0.00,,,0.00,Wunderground v.1.15,2013-03-02 06:21:00,
2013-03-02 00:22:00,20.9,15.7,30.25,NNW,343,2.0,2.0,80,0.00,,,0.00,Wunderground v.1.15,2013-03-02 06:22:00,
2013-03-02 00:25:00,20.8,15.6,30.25,NNW,343,2.0,4.0,80,0.00,,,0.00,Wunderground v.1.15,2013-03-02 06:25:00,
2013-03-02 00:27:00,20.8,15.6,30.25,NNW,342,2.0,4.0,80,0.00,,,0.00,Wunderground v.1.15,2013-03-02 06:27:00,
2013-03-02 00:28:00,20.7,15.5,30.25,NNW,342,2.0,4.0,80,0.00,,,0.00,Wunderground v.1.15,2013-03-02 06:28:00,
2013-03-02 00:32:00,20.7,15.5,30.25,NNW,342,2.0,3.0,80,0.00,,,0.00,Wunderground v.1.15,2013-03-02 06:32:00,
2013-03-02 00:35:00,20.6,15.4,30.25,NNW,342,2.0,3.0,80,0.00,,,0.00,Wunderground v.1.15,2013-03-02 06:35:00,
2013-03-02 00:36:00,20.6,15.4,30.25,NNW,342,2.0,3.0,80,0.00,,,0.00,Wunderground v.1.15,2013-03-02 06:36:00,
2013-03-02 00:40:00,20.4,15.2,30.25,NNW,342,2.0,3.0,80,0.00,,,0.00,Wunderground v.1.15,2013-03-02 06:40:00,
2013-03-02 00:41:00,20.4,15.2,30.25,NNW,341,2.0,3.0,80,0.00,,,0.00,Wunderground v.1.15,2013-03-02 06:41:00,
2013-03-02 00:42:00,20.4,15.2,30.25,NNW,342,2.0,3.0,80,0.00,,,0.00,Wunderground v.1.15,2013-03-02 06:42:00,
2013-03-02 00:47:00,20.3,15.1,30.25,NNW,341,2.0,3.0,80,0.00,,,0.00,Wunderground v.1.15,2013-03-02 06:47:00,
2013-03-02 00:48:00,20.3,15.1,30.25,NNW,341,2.0,3.0,80,0.00,,,0.00,Wunderground v.1.15,2013-03-02 06:48:00,
2013-03-02 00:50:00,20.3,15.1,30.25,NNW,341,2.0,2.0,80,0.00,,,0.00,Wunderground v.1.15,2013-03-02 06:50:00,
2013-03-02 00:55:00,20.1,14.9,30.25,NNW,340,2.0,3.0,80,0.00,,,0.00,Wunderground v.1.15,2013-03-02 06:55:00,
2013-03-02 00:56:00,20.0,14.8,30.25,NNW,340,2.0,3.0,80,0.00,,,0.00,Wunderground v.1.15,2013-03-02 06:56:00,
2013-03-02 01:00:00,19.8,14.9,30.25,NNW,340,2.0,3.0,81,0.00,,,0.00,Wunderground v.1.15,2013-03-02 07:00:00,
2013-03-02 01:01:00,19.8,14.6,30.25,NNW,339,2.0,3.0,80,0.00,,,0.00,Wunderground v.1.15,2013-03-02 07:01:00,
2013-03-02 01:03:00,19.7,14.8,30.25,NNW,338,2.0,4.0,81,0.00,,,0.00,Wunderground v.1.15,2013-03-02 07:03:00,
2013-03-02 01:06:00,19.6,14.7,30.25,NNW,331,2.0,4.0,81,0.00,,,0.00,Wunderground v.1.15,2013-03-02 07:06:00,
2013-03-02 01:08:00,19.6,14.7,30.25,NW,319,2.0,4.0,81,0.00,,,0.00,Wunderground v.1.15,2013-03-02 07:08:00,
2013-03-02 01:10:00,19.5,14.6,30.25,NW,319,3.0,3.0,81,0.00,,,0.00,Wunderground v.1.15,2013-03-02 07:10:00,
2013-03-02 01:12:00,19.5,14.6,30.26,NW,318,3.0,4.0,81,0.00,,,0.00,Wunderground v.1.15,2013-03-02 07:12:00,
2013-03-02 01:13:00,19.5,14.6,30.26,NW,321,3.0,4.0,81,0.00,,,0.00,Wunderground v.1.15,2013-03-02 07:13:00,
2013-03-02 01:15:00,19.5,14.6,30.26,NW,321,3.0,4.0,81,0.00,,,0.00,Wunderground v.1.15,2013-03-02 07:15:00,
2013-03-02 01:18:00,19.5,14.6,30.25,NW,320,3.0,4.0,81,0.00,,,0.00,Wunderground v.1.15,2013-03-02 07:18:00,
2013-03-02 01:20:00,19.5,14.6,30.25,NW,325,3.0,5.0,81,0.00,,,0.00,Wunderground v.1.15,2013-03-02 07:20:00,
2013-03-02 01:22:00,19.4,14.8,30.25,NW,323,4.0,5.0,82,0.00,,,0.00,Wunderground v.1.15,2013-03-02 07:22:00,
2013-03-02 01:23:00,19.4,14.8,30.25,NW,323,4.0,5.0,82,0.00,,,0.00,Wunderground v.1.15,2013-03-02 07:23:00,
2013-03-02 01:25:00,19.4,14.8,30.26,NW,315,4.0,5.0,82,0.00,,,0.00,Wunderground v.1.15,2013-03-02 07:25:00,
2013-03-02 01:28:00,19.3,14.7,30.26,NW,320,4.0,5.0,82,0.00,,,0.00,Wunderground v.1.15,2013-03-02 07:28:00,
2013-03-02 01:30:00,19.2,14.3,30.26,NW,320,4.0,4.0,81,0.00,,,0.00,Wunderground v.1.15,2013-03-02 07:30:00,
2013-03-02 01:33:00,19.1,14.2,30.26,NNW,327,4.0,6.0,81,0.00,,,0.00,Wunderground v.1.15,2013-03-02 07:33:00,
2013-03-02 01:36:00,19.0,14.4,30.25,NNW,327,4.0,6.0,82,0.00,,,0.00,Wunderground v.1.15,2013-03-02 07:36:00,
2013-03-02 01:38:00,18.9,14.3,30.25,NW,326,4.0,6.0,82,0.00,,,0.00,Wunderground v.1.15,2013-03-02 07:38:00,
2013-03-02 01:40:00,18.8,14.2,30.25,NW,325,3.0,3.0,82,0.00,,,0.00,Wunderground v.1.15,2013-03-02 07:40:00,
2013-03-02 01:41:00,18.8,14.2,30.26,NW,325,3.0,3.0,82,0.00,,,0.00,Wunderground v.1.15,2013-03-02 07:41:00,
2013-03-02 01:43:00,18.6,14.0,30.25,NW,325,3.0,3.0,82,0.00,,,0.00,Wunderground v.1.15,2013-03-02 07:43:00,
2013-03-02 01:45:00,18.5,13.9,30.25,NW,325,3.0,3.0,82,0.00,,,0.00,Wunderground v.1.15,2013-03-02 07:45:00,
2013-03-02 01:46:00,18.5,13.9,30.26,NW,323,3.0,3.0,82,0.00,,,0.00,Wunderground v.1.15,2013-03-02 07:46:00,
2013-03-02 01:48:00,18.4,13.8,30.26,NNW,339,3.0,5.0,82,0.00,,,0.00,Wunderground v.1.15,2013-03-02 07:48:00,
2013-03-02 01:50:00,18.4,13.8,30.26,NNW,334,3.0,5.0,82,0.00,,,0.00,Wunderground v.1.15,2013-03-02 07:50:00,
2013-03-02 01:53:00,18.3,14.0,30.25,NW,323,3.0,5.0,83,0.00,,,0.00,Wunderground v.1.15,2013-03-02 07:53:00,
2013-03-02 01:55:00,18.3,14.0,30.25,NW,323,4.0,5.0,83,0.00,,,0.00,Wunderground v.1.15,2013-03-02 07:55:00,
2013-03-02 01:57:00,18.2,13.9,30.25,NW,318,4.0,5.0,83,0.00,,,0.00,Wunderground v.1.15,2013-03-02 07:57:00,
2013-03-02 01:58:00,18.2,13.9,30.25,NW,325,4.0,5.0,83,0.00,,,0.00,Wunderground v.1.15,2013-03-02 07:58:00,
2013-03-02 02:02:00,18.2,14.2,30.25,NNW,327,4.0,5.0,84,0.00,,,0.00,Wunderground v.1.15,2013-03-02 08:02:00,
2013-03-02 02:05:00,18.2,13.9,30.25,NW,324,4.0,5.0,83,0.00,,,0.00,Wunderground v.1.15,2013-03-02 08:05:00,
2013-03-02 02:07:00,18.1,13.8,30.25,NW,323,4.0,5.0,83,0.00,,,0.00,Wunderground v.1.15,2013-03-02 08:07:00,
2013-03-02 02:10:00,17.9,13.6,30.25,NW,324,3.0,3.0,83,0.00,,,0.00,Wunderground v.1.15,2013-03-02 08:10:00,
2013-03-02 02:12:00,17.9,13.6,30.25,NNW,327,3.0,4.0,83,0.00,,,0.00,Wunderground v.1.15,2013-03-02 08:12:00,
2013-03-02 02:13:00,17.8,13.5,30.25,NNW,327,3.0,4.0,83,0.00,,,0.00,Wunderground v.1.15,2013-03-02 08:13:00,
2013-03-02 02:16:00,17.7,13.7,30.25,NNW,327,2.0,4.0,84,0.00,,,0.00,Wunderground v.1.15,2013-03-02 08:16:00,
2013-03-02 02:17:00,17.6,13.6,30.25,NNW,327,2.0,4.0,84,0.00,,,0.00,Wunderground v.1.15,2013-03-02 08:17:00,
2013-03-02 02:18:00,17.7,13.7,30.25,NNW,330,2.0,6.0,84,0.00,,,0.00,Wunderground v.1.15,2013-03-02 08:18:00,
2013-03-02 02:20:00,17.6,13.6,30.25,NNW,330,2.0,5.0,84,0.00,,,0.00,Wunderground v.1.15,2013-03-02 08:20:00,
2013-03-02 02:23:00,17.5,13.5,30.25,NNW,330,2.0,5.0,84,0.00,,,0.00,Wunderground v.1.15,2013-03-02 08:23:00,
2013-03-02 02:25:00,17.5,13.5,30.25,NNW,330,2.0,5.0,84,0.00,,,0.00,Wunderground v.1.15,2013-03-02 08:25:00,
2013-03-02 02:26:00,17.4,13.4,30.25,NNW,330,2.0,5.0,84,0.00,,,0.00,Wunderground v.1.15,2013-03-02 08:26:00,
2013-03-02 02:28:00,17.4,13.7,30.25,NNW,346,2.0,5.0,85,0.00,,,0.00,Wunderground v.1.15,2013-03-02 08:28:00,
2013-03-02 02:31:00,17.3,13.6,30.25,NNW,339,2.0,3.0,85,0.00,,,0.00,Wunderground v.1.15,2013-03-02 08:31:00,
2013-03-02 02:32:00,17.3,13.6,30.24,NNW,339,3.0,3.0,85,0.00,,,0.00,Wunderground v.1.15,2013-03-02 08:32:00,
2013-03-02 02:35:00,17.4,13.9,30.24,NNW,340,3.0,4.0,86,0.00,,,0.00,Wunderground v.1.15,2013-03-02 08:35:00,
2013-03-02 02:38:00,17.6,14.1,30.24,NNW,346,3.0,4.0,86,0.00,,,0.00,Wunderground v.1.15,2013-03-02 08:38:00,
2013-03-02 02:40:00,17.7,14.2,30.24,North,355,3.0,3.0,86,0.00,,,0.00,Wunderground v.1.15,2013-03-02 08:40:00,
2013-03-02 02:41:00,17.7,14.2,30.24,North,355,3.0,3.0,86,0.00,,,0.00,Wunderground v.1.15,2013-03-02 08:41:00,
2013-03-02 02:42:00,17.8,14.3,30.24,North,355,3.0,3.0,86,0.00,,,0.00,Wunderground v.1.15,2013-03-02 08:42:00,
2013-03-02 02:45:00,17.8,14.3,30.24,North,355,3.0,3.0,86,0.00,,,0.00,Wunderground v.1.15,2013-03-02 08:45:00,
2013-03-02 02:46:00,17.8,14.3,30.24,North,355,3.0,3.0,86,0.00,,,0.00,Wunderground v.1.15,2013-03-02 08:46:00,
2013-03-02 02:48:00,17.8,14.3,30.24,NNW,346,3.0,4.0,86,0.00,,,0.00,Wunderground v.1.15,2013-03-02 08:48:00,
2013-03-02 02:50:00,17.8,14.3,30.24,North,350,3.0,5.0,86,0.00,,,0.00,Wunderground v.1.15,2013-03-02 08:50:00,
2013-03-02 02:52:00,17.9,14.4,30.24,North,355,3.0,5.0,86,0.00,,,0.00,Wunderground v.1.15,2013-03-02 08:52:00,
2013-03-02 02:55:00,17.9,14.4,30.24,North,355,4.0,5.0,86,0.00,,,0.00,Wunderground v.1.15,2013-03-02 08:55:00,
2013-03-02 02:56:00,17.9,14.2,30.24,NNW,345,4.0,6.0,85,0.00,,,0.00,Wunderground v.1.15,2013-03-02 08:56:00,
2013-03-02 02:57:00,17.9,14.2,30.24,NNW,344,4.0,6.0,85,0.00,,,0.00,Wunderground v.1.15,2013-03-02 08:57:00,
2013-03-02 03:00:00,17.9,14.2,30.24,NNW,344,4.0,7.0,85,0.00,,,0.00,Wunderground v.1.15,2013-03-02 09:00:00,
2013-03-02 03:03:00,17.9,14.2,30.24,NNW,346,4.0,7.0,85,0.00,,,0.00,Wunderground v.1.15,2013-03-02 09:03:00,
2013-03-02 03:05:00,17.9,13.9,30.24,North,5,4.0,7.0,84,0.00,,,0.00,Wunderground v.1.15,2013-03-02 09:05:00,
2013-03-02 03:08:00,17.8,13.8,30.24,North,349,4.0,7.0,84,0.00,,,0.00,Wunderground v.1.15,2013-03-02 09:08:00,
2013-03-02 03:10:00,17.7,13.7,30.24,North,360,4.0,4.0,84,0.00,,,0.00,Wunderground v.1.15,2013-03-02 09:10:00,
2013-03-02 03:11:00,17.7,13.7,30.24,North,360,4.0,4.0,84,0.00,,,0.00,Wunderground v.1.15,2013-03-02 09:11:00,
2013-03-02 03:16:00,17.5,13.5,30.24,NNW,348,4.0,5.0,84,0.00,,,0.00,Wunderground v.1.15,2013-03-02 09:16:00,
2013-03-02 03:17:00,17.5,13.5,30.24,NNW,337,4.0,9.0,84,0.00,,,0.00,Wunderground v.1.15,2013-03-02 09:17:00,
2013-03-02 03:18:00,17.5,13.5,30.24,North,355,4.0,9.0,84,0.00,,,0.00,Wunderground v.1.15,2013-03-02 09:18:00,
2013-03-02 03:22:00,17.4,13.4,30.24,North,5,5.0,5.0,84,0.00,,,0.00,Wunderground v.1.15,2013-03-02 09:22:00,
2013-03-02 03:25:00,17.3,13.3,30.24,NNW,335,5.0,6.0,84,0.00,,,0.00,Wunderground v.1.15,2013-03-02 09:25:00,
2013-03-02 03:28:00,17.3,13.0,30.24,NNW,344,5.0,7.0,83,0.00,,,0.00,Wunderground v.1.15,2013-03-02 09:28:00,
2013-03-02 03:30:00,17.2,12.9,30.24,North,355,5.0,5.0,83,0.00,,,0.00,Wunderground v.1.15,2013-03-02 09:30:00,
2013-03-02 03:31:00,17.1,12.8,30.24,North,360,5.0,5.0,83,0.00,,,0.00,Wunderground v.1.15,2013-03-02 09:31:00,
2013-03-02 03:35:00,17.0,12.7,30.24,NNW,344,5.0,6.0,83,0.00,,,0.00,Wunderground v.1.15,2013-03-02 09:35:00,
2013-03-02 03:36:00,16.9,12.6,30.24,NNW,348,5.0,7.0,83,0.00,,,0.00,Wunderground v.1.15,2013-03-02 09:36:00,
2013-03-02 03:38:00,16.8,12.5,30.24,NNW,341,5.0,8.0,83,0.00,,,0.00,Wunderground v.1.15,2013-03-02 09:38:00,
2013-03-02 03:40:00,16.8,12.5,30.24,NNW,336,6.0,7.0,83,0.00,,,0.00,Wunderground v.1.15,2013-03-02 09:40:00,
2013-03-02 03:41:00,16.7,12.4,30.24,NNW,330,6.0,7.0,83,0.00,,,0.00,Wunderground v.1.15,2013-03-02 09:41:00,
2013-03-02 03:45:00,16.6,12.1,30.24,NNW,339,7.0,12.0,82,0.00,,,0.00,Wunderground v.1.15,2013-03-02 09:45:00,
2013-03-02 03:47:00,16.5,12.0,30.24,NNW,340,7.0,12.0,82,0.00,,,0.00,Wunderground v.1.15,2013-03-02 09:47:00,
2013-03-02 03:50:00,16.4,11.9,30.24,NNW,336,8.0,8.0,82,0.00,,,0.00,Wunderground v.1.15,2013-03-02 09:50:00,
2013-03-02 03:52:00,16.3,11.8,30.24,North,360,8.0,8.0,82,0.00,,,0.00,Wunderground v.1.15,2013-03-02 09:52:00,
2013-03-02 03:53:00,16.2,11.7,30.24,North,350,8.0,8.0,82,0.00,,,0.00,Wunderground v.1.15,2013-03-02 09:53:00,
2013-03-02 03:55:00,16.1,11.6,30.24,NNW,344,7.0,9.0,82,0.00,,,0.00,Wunderground v.1.15,2013-03-02 09:55:00,
2013-03-02 03:56:00,16.1,11.6,30.24,NNW,336,7.0,9.0,82,0.00,,,0.00,Wunderground v.1.15,2013-03-02 09:56:00,
2013-03-02 04:00:00,15.9,11.4,30.24,North,350,6.0,6.0,82,0.00,,,0.00,Wunderground v.1.15,2013-03-02 10:00:00,
2013-03-02 04:01:00,15.8,11.3,30.24,NNW,329,6.0,10.0,82,0.00,,,0.00,Wunderground v.1.15,2013-03-02 10:01:00,
2013-03-02 04:03:00,15.7,11.2,30.24,North,349,6.0,10.0,82,0.00,,,0.00,Wunderground v.1.15,2013-03-02 10:03:00,
2013-03-02 04:05:00,15.6,11.1,30.24,North,351,6.0,10.0,82,0.00,,,0.00,Wunderground v.1.15,2013-03-02 10:05:00,
2013-03-02 04:10:00,15.3,10.8,30.24,North,355,5.0,5.0,82,0.00,,,0.00,Wunderground v.1.15,2013-03-02 10:10:00,
2013-03-02 04:11:00,15.2,10.7,30.24,NNW,348,5.0,6.0,82,0.00,,,0.00,Wunderground v.1.15,2013-03-02 10:11:00,
2013-03-02 04:15:00,15.0,10.5,30.24,North,360,5.0,6.0,82,0.00,,,0.00,Wunderground v.1.15,2013-03-02 10:15:00,
2013-03-02 04:17:00,14.9,10.4,30.25,North,355,5.0,6.0,82,0.00,,,0.00,Wunderground v.1.15,2013-03-02 10:17:00,
2013-03-02 04:18:00,14.8,10.3,30.25,North,355,5.0,6.0,82,0.00,,,0.00,Wunderground v.1.15,2013-03-02 10:18:00,
2013-03-02 04:23:00,14.6,10.1,30.25,North,355,5.0,6.0,82,0.00,,,0.00,Wunderground v.1.15,2013-03-02 10:23:00,
2013-03-02 04:25:00,14.4,9.9,30.25,North,355,5.0,6.0,82,0.00,,,0.00,Wunderground v.1.15,2013-03-02 10:25:00,
2013-03-02 04:28:00,14.3,9.8,30.25,North,350,4.0,7.0,82,0.00,,,0.00,Wunderground v.1.15,2013-03-02 10:28:00,
2013-03-02 04:30:00,14.1,9.6,30.25,NNE,13,4.0,4.0,82,0.00,,,0.00,Wunderground v.1.15,2013-03-02 10:30:00,
2013-03-02 04:35:00,13.9,9.4,30.25,North,5,5.0,6.0,82,0.00,,,0.00,Wunderground v.1.15,2013-03-02 10:35:00,
2013-03-02 04:36:00,13.9,9.4,30.25,North,5,5.0,6.0,82,0.00,,,0.00,Wunderground v.1.15,2013-03-02 10:36:00,
2013-03-02 04:37:00,13.9,9.4,30.25,NNE,15,5.0,6.0,82,0.00,,,0.00,Wunderground v.1.15,2013-03-02 10:37:00,
2013-03-02 04:38:00,13.8,9.3,30.25,North,5,5.0,6.0,82,0.00,,,0.00,Wunderground v.1.15,2013-03-02 10:38:00,
2013-03-02 04:42:00,13.6,9.1,30.25,North,360,4.0,4.0,82,0.00,,,0.00,Wunderground v.1.15,2013-03-02 10:42:00,
2013-03-02 04:43:00,13.6,9.1,30.25,North,355,4.0,5.0,82,0.00,,,0.00,Wunderground v.1.15,2013-03-02 10:43:00,
2013-03-02 04:45:00,13.5,9.0,30.25,NNE,15,4.0,5.0,82,0.00,,,0.00,Wunderground v.1.15,2013-03-02 10:45:00,
2013-03-02 04:47:00,13.4,8.9,30.25,North,355,4.0,5.0,82,0.00,,,0.00,Wunderground v.1.15,2013-03-02 10:47:00,
2013-03-02 04:48:00,13.4,8.9,30.25,North,355,3.0,5.0,82,0.00,,,0.00,Wunderground v.1.15,2013-03-02 10:48:00,
2013-03-02 04:50:00,13.3,8.8,30.25,North,355,3.0,5.0,82,0.00,,,0.00,Wunderground v.1.15,2013-03-02 10:50:00,
2013-03-02 04:52:00,13.2,8.7,30.25,North,350,4.0,6.0,82,0.00,,,0.00,Wunderground v.1.15,2013-03-02 10:52:00,
2013-03-02 04:53:00,13.1,8.6,30.25,North,360,4.0,6.0,82,0.00,,,0.00,Wunderground v.1.15,2013-03-02 10:53:00,
2013-03-02 04:55:00,13.1,8.6,30.25,North,355,4.0,6.0,82,0.00,,,0.00,Wunderground v.1.15,2013-03-02 10:55:00,
2013-03-02 04:56:00,13.0,8.5,30.25,North,355,4.0,6.0,82,0.00,,,0.00,Wunderground v.1.15,2013-03-02 10:56:00,
2013-03-02 05:00:00,12.9,8.4,30.26,North,355,4.0,5.0,82,0.00,,,0.00,Wunderground v.1.15,2013-03-02 11:00:00,
2013-03-02 05:01:00,12.8,8.3,30.26,North,355,4.0,5.0,82,0.00,,,0.00,Wunderground v.1.15,2013-03-02 11:01:00,
2013-03-02 05:02:00,12.8,8.3,30.26,North,355,4.0,5.0,82,0.00,,,0.00,Wunderground v.1.15,2013-03-02 11:02:00,
2013-03-02 05:03:00,12.8,8.3,30.26,North,355,4.0,5.0,82,0.00,,,0.00,Wunderground v.1.15,2013-03-02 11:03:00,
2013-03-02 05:07:00,12.7,8.2,30.26,NNW,348,4.0,6.0,82,0.00,,,0.00,Wunderground v.1.15,2013-03-02 11:07:00,
2013-03-02 05:08:00,12.6,8.1,30.26,North,355,4.0,7.0,82,0.00,,,0.00,Wunderground v.1.15,2013-03-02 11:08:00,
2013-03-02 05:11:00,12.5,8.0,30.26,North,5,4.0,6.0,82,0.00,,,0.00,Wunderground v.1.15,2013-03-02 11:11:00,
2013-03-02 05:13:00,12.4,8.0,30.26,North,351,5.0,6.0,82,0.00,,,0.00,Wunderground v.1.15,2013-03-02 11:13:00,
2013-03-02 05:15:00,12.4,8.0,30.26,North,350,5.0,6.0,82,0.00,,,0.00,Wunderground v.1.15,2013-03-02 11:15:00,
2013-03-02 05:16:00,12.3,7.9,30.26,North,360,5.0,6.0,82,0.00,,,0.00,Wunderground v.1.15,2013-03-02 11:16:00,
2013-03-02 05:18:00,12.3,8.1,30.26,North,351,5.0,6.0,83,0.00,,,0.00,Wunderground v.1.15,2013-03-02 11:18:00,
2013-03-02 05:23:00,12.1,7.9,30.26,NNW,346,4.0,5.0,83,0.00,,,0.00,Wunderground v.1.15,2013-03-02 11:23:00,
2013-03-02 05:25:00,12.1,7.9,30.26,North,355,4.0,5.0,83,0.00,,,0.00,Wunderground v.1.15,2013-03-02 11:25:00,
2013-03-02 05:26:00,12.1,7.9,30.26,North,355,4.0,5.0,83,0.00,,,0.00,Wunderground v.1.15,2013-03-02 11:26:00,
2013-03-02 05:28:00,11.9,7.7,30.26,North,351,4.0,5.0,83,0.00,,,0.00,Wunderground v.1.15,2013-03-02 11:28:00,
2013-03-02 05:30:00,11.9,7.7,30.26,North,350,3.0,3.0,83,0.00,,,0.00,Wunderground v.1.15,2013-03-02 11:30:00,
2013-03-02 05:31:00,11.9,7.7,30.26,North,350,3.0,3.0,83,0.00,,,0.00,Wunderground v.1.15,2013-03-02 11:31:00,
2013-03-02 05:33:00,11.8,7.6,30.26,North,350,3.0,3.0,83,0.00,,,0.00,Wunderground v.1.15,2013-03-02 11:33:00,
2013-03-02 05:36:00,11.6,7.4,30.26,North,349,3.0,5.0,83,0.00,,,0.00,Wunderground v.1.15,2013-03-02 11:36:00,
2013-03-02 05:37:00,11.6,7.4,30.26,North,350,3.0,5.0,83,0.00,,,0.00,Wunderground v.1.15,2013-03-02 11:37:00,
2013-03-02 05:40:00,11.5,7.3,30.26,North,351,3.0,3.0,83,0.00,,,0.00,Wunderground v.1.15,2013-03-02 11:40:00,
2013-03-02 05:41:00,11.5,7.3,30.26,North,350,3.0,3.0,83,0.00,,,0.00,Wunderground v.1.15,2013-03-02 11:41:00,
2013-03-02 05:42:00,11.4,7.2,30.26,North,350,3.0,3.0,83,0.00,,,0.00,Wunderground v.1.15,2013-03-02 11:42:00,
2013-03-02 05:46:00,11.4,7.2,30.26,NNW,348,3.0,4.0,83,0.00,,,0.00,Wunderground v.1.15,2013-03-02 11:46:00,
2013-03-02 05:47:00,11.3,7.1,30.26,NNW,347,3.0,4.0,83,0.00,,,0.00,Wunderground v.1.15,2013-03-02 11:47:00,
2013-03-02 05:50:00,11.3,7.1,30.26,NNW,348,3.0,4.0,83,0.00,,,0.00,Wunderground v.1.15,2013-03-02 11:50:00,
2013-03-02 05:52:00,11.2,7.3,30.26,NNW,348,4.0,4.0,84,0.00,,,0.00,Wunderground v.1.15,2013-03-02 11:52:00,
2013-03-02 05:55:00,11.2,7.3,30.25,NNW,347,4.0,5.0,84,0.00,,,0.00,Wunderground v.1.15,2013-03-02 11:55:00,
2013-03-02 05:58:00,11.2,7.3,30.26,North,355,4.0,5.0,84,0.00,,,0.00,Wunderground v.1.15,2013-03-02 11:58:00,
2013-03-02 06:00:00,11.2,7.3,30.26,North,360,3.0,4.0,84,0.00,,,0.00,Wunderground v.1.15,2013-03-02 12:00:00,
2013-03-02 06:02:00,11.2,7.3,30.26,North,355,3.0,4.0,84,0.00,,,0.00,Wunderground v.1.15,2013-03-02 12:02:00,
2013-03-02 06:03:00,11.1,7.2,30.26,North,5,3.0,5.0,84,0.00,,,0.00,Wunderground v.1.15,2013-03-02 12:03:00,
2013-03-02 06:05:00,11.1,7.2,30.26,North,360,4.0,5.0,84,0.00,,,0.00,Wunderground v.1.15,2013-03-02 12:05:00,
2013-03-02 06:07:00,11.1,7.2,30.26,North,360,3.0,5.0,84,0.00,,,0.00,Wunderground v.1.15,2013-03-02 12:07:00,
2013-03-02 06:10:00,11.0,7.1,30.26,North,355,4.0,4.0,84,0.00,,,0.00,Wunderground v.1.15,2013-03-02 12:10:00,
2013-03-02 06:12:00,11.0,7.1,30.26,North,355,4.0,4.0,84,0.00,,,0.00,Wunderground v.1.15,2013-03-02 12:12:00,
2013-03-02 06:15:00,10.9,7.0,30.26,North,355,3.0,4.0,84,0.00,,,0.00,Wunderground v.1.15,2013-03-02 12:15:00,
2013-03-02 06:17:00,10.9,7.0,30.26,North,355,3.0,4.0,84,0.00,,,0.00,Wunderground v.1.15,2013-03-02 12:17:00,
2013-03-02 06:20:00,10.9,7.0,30.26,North,355,3.0,3.0,84,0.00,,,0.00,Wunderground v.1.15,2013-03-02 12:20:00,
2013-03-02 06:22:00,10.9,7.0,30.25,North,355,3.0,3.0,84,0.00,,,0.00,Wunderground v.1.15,2013-03-02 12:22:00,
2013-03-02 06:25:00,10.9,7.0,30.25,North,350,3.0,3.0,84,0.00,,,0.00,Wunderground v.1.15,2013-03-02 12:25:00,
2013-03-02 06:26:00,10.9,7.0,30.25,North,350,3.0,3.0,84,0.00,,,0.00,Wunderground v.1.15,2013-03-02 12:26:00,
2013-03-02 06:30:00,10.9,7.0,30.26,North,350,3.0,3.0,84,0.00,,,0.00,Wunderground v.1.15,2013-03-02 12:30:00,
2013-03-02 06:32:00,10.8,6.9,30.26,North,350,3.0,3.0,84,0.00,,,0.00,Wunderground v.1.15,2013-03-02 12:32:00,
2013-03-02 06:33:00,10.8,6.9,30.26,North,349,3.0,3.0,84,0.00,,,0.00,Wunderground v.1.15,2013-03-02 12:33:00,
2013-03-02 06:35:00,10.8,6.9,30.27,North,349,3.0,4.0,84,0.00,,,0.00,Wunderground v.1.15,2013-03-02 12:35:00,
2013-03-02 06:40:00,10.8,6.9,30.27,North,350,3.0,3.0,84,0.00,,,0.00,Wunderground v.1.15,2013-03-02 12:40:00,
2013-03-02 06:42:00,10.8,6.9,30.27,North,350,3.0,3.0,84,0.00,,,0.00,Wunderground v.1.15,2013-03-02 12:42:00,
2013-03-02 06:45:00,10.8,6.9,30.27,North,349,3.0,5.0,84,0.00,,,0.00,Wunderground v.1.15,2013-03-02 12:45:00,
2013-03-02 06:50:00,10.7,6.8,30.27,North,5,3.0,7.0,84,0.00,,,0.00,Wunderground v.1.15,2013-03-02 12:50:00,
2013-03-02 06:53:00,10.7,6.8,30.27,North,360,4.0,7.0,84,0.00,,,0.00,Wunderground v.1.15,2013-03-02 12:53:00,
2013-03-02 06:55:00,10.8,6.9,30.27,North,360,4.0,7.0,84,0.00,,,0.00,Wunderground v.1.15,2013-03-02 12:55:00,
2013-03-02 06:56:00,10.8,6.9,30.27,North,355,4.0,7.0,84,0.00,,,0.00,Wunderground v.1.15,2013-03-02 12:56:00,
2013-03-02 06:58:00,10.9,7.0,30.27,North,5,4.0,7.0,84,0.00,,,0.00,Wunderground v.1.15,2013-03-02 12:58:00,
2013-03-02 07:00:00,10.9,7.0,30.28,North,355,4.0,4.0,84,0.00,,,0.00,Wunderground v.1.15,2013-03-02 13:00:00,
2013-03-02 07:05:00,11.0,7.1,30.28,North,355,4.0,6.0,84,0.00,,,0.00,Wunderground v.1.15,2013-03-02 13:05:00,
2013-03-02 07:07:00,11.0,7.1,30.28,North,355,4.0,6.0,84,0.00,,,0.00,Wunderground v.1.15,2013-03-02 13:07:00,
2013-03-02 07:10:00,11.0,6.8,30.28,North,355,4.0,4.0,83,0.00,,,0.00,Wunderground v.1.15,2013-03-02 13:10:00,
2013-03-02 07:11:00,11.0,6.8,30.28,North,355,4.0,4.0,83,0.00,,,0.00,Wunderground v.1.15,2013-03-02 13:11:00,
2013-03-02 07:15:00,11.0,6.8,30.28,North,5,4.0,4.0,83,0.00,,,0.00,Wunderground v.1.15,2013-03-02 13:15:00,
2013-03-02 07:16:00,11.0,6.8,30.28,North,360,4.0,5.0,83,0.00,,,0.00,Wunderground v.1.15,2013-03-02 13:16:00,
2013-03-02 07:17:00,11.0,6.8,30.28,North,360,4.0,5.0,83,0.00,,,0.00,Wunderground v.1.15,2013-03-02 13:17:00,
2013-03-02 07:18:00,10.9,6.8,30.28,North,360,4.0,5.0,83,0.00,,,0.00,Wunderground v.1.15,2013-03-02 13:18:00,
2013-03-02 07:21:00,10.9,6.8,30.28,North,355,4.0,4.0,83,0.00,,,0.00,Wunderground v.1.15,2013-03-02 13:21:00,
2013-03-02 07:22:00,11.0,6.8,30.28,North,355,4.0,4.0,83,0.00,,,0.00,Wunderground v.1.15,2013-03-02 13:22:00,
2013-03-02 07:25:00,11.0,6.8,30.28,North,360,4.0,5.0,83,0.00,,,0.00,Wunderground v.1.15,2013-03-02 13:25:00,
2013-03-02 07:26:00,11.1,6.9,30.28,North,360,4.0,5.0,83,0.00,,,0.00,Wunderground v.1.15,2013-03-02 13:26:00,
2013-03-02 07:30:00,11.2,7.0,30.28,North,355,3.0,4.0,83,0.00,,,0.00,Wunderground v.1.15,2013-03-02 13:30:00,
2013-03-02 07:31:00,11.3,7.1,30.28,North,355,4.0,4.0,83,0.00,,,0.00,Wunderground v.1.15,2013-03-02 13:31:00,
2013-03-02 07:33:00,11.4,7.2,30.28,North,355,4.0,5.0,83,0.00,,,0.00,Wunderground v.1.15,2013-03-02 13:33:00,
2013-03-02 07:35:00,11.4,7.2,30.28,North,355,4.0,5.0,83,0.00,,,0.00,Wunderground v.1.15,2013-03-02 13:35:00,
2013-03-02 07:40:00,11.8,7.6,30.28,North,360,4.0,5.0,83,0.00,,,0.00,Wunderground v.1.15,2013-03-02 13:40:00,
2013-03-02 07:43:00,12.0,7.6,30.28,North,360,4.0,6.0,82,0.00,,,0.00,Wunderground v.1.15,2013-03-02 13:43:00,
2013-03-02 07:46:00,12.2,7.8,30.28,North,5,4.0,6.0,82,0.00,,,0.00,Wunderground v.1.15,2013-03-02 13:46:00,
2013-03-02 07:50:00,12.4,7.7,30.28,North,360,4.0,5.0,81,0.00,,,0.00,Wunderground v.1.15,2013-03-02 13:50:00,
2013-03-02 07:52:00,12.5,7.8,30.28,North,355,4.0,5.0,81,0.00,,,0.00,Wunderground v.1.15,2013-03-02 13:52:00,
2013-03-02 07:53:00,12.6,7.9,30.28,NNW,346,4.0,5.0,81,0.00,,,0.00,Wunderground v.1.15,2013-03-02 13:53:00,
2013-03-02 07:58:00,13.0,8.3,30.28,NNE,16,4.0,6.0,81,0.00,,,0.00,Wunderground v.1.15,2013-03-02 13:58:00,
2013-03-02 08:01:00,13.2,8.2,30.28,NNE,14,4.0,7.0,80,0.00,,,0.00,Wunderground v.1.15,2013-03-02 14:01:00,
2013-03-02 08:02:00,13.3,8.3,30.28,North,349,4.0,7.0,80,0.00,,,0.00,Wunderground v.1.15,2013-03-02 14:02:00,
2013-03-02 08:05:00,13.4,8.4,30.28,North,355,4.0,7.0,80,0.00,,,0.00,Wunderground v.1.15,2013-03-02 14:05:00,
2013-03-02 08:06:00,13.4,8.4,30.28,North,360,5.0,7.0,80,0.00,,,0.00,Wunderground v.1.15,2013-03-02 14:06:00,
2013-03-02 08:10:00,13.6,8.6,30.28,North,5,5.0,6.0,80,0.00,,,0.00,Wunderground v.1.15,2013-03-02 14:10:00,
2013-03-02 08:11:00,13.6,8.6,30.28,NNW,347,5.0,7.0,80,0.00,,,0.00,Wunderground v.1.15,2013-03-02 14:11:00,
2013-03-02 08:12:00,13.6,8.6,30.28,NNW,347,5.0,7.0,80,0.00,,,0.00,Wunderground v.1.15,2013-03-02 14:12:00,
2013-03-02 08:16:00,13.9,8.6,30.28,North,351,6.0,7.0,79,0.00,,,0.00,Wunderground v.1.15,2013-03-02 14:16:00,
2013-03-02 08:17:00,13.9,8.6,30.28,North,355,6.0,7.0,79,0.00,,,0.00,Wunderground v.1.15,2013-03-02 14:17:00,
2013-03-02 08:18:00,14.0,8.7,30.28,North,351,6.0,7.0,79,0.00,,,0.00,Wunderground v.1.15,2013-03-02 14:18:00,
2013-03-02 08:23:00,14.2,8.9,30.28,North,349,5.0,5.0,79,0.00,,,0.00,Wunderground v.1.15,2013-03-02 14:23:00,
2013-03-02 08:25:00,14.3,9.0,30.28,NNW,346,5.0,5.0,79,0.00,,,0.00,Wunderground v.1.15,2013-03-02 14:25:00,
2013-03-02 08:28:00,14.5,9.2,30.28,NNW,344,5.0,6.0,79,0.00,,,0.00,Wunderground v.1.15,2013-03-02 14:28:00,
2013-03-02 08:30:00,14.6,9.3,30.28,North,350,5.0,5.0,79,0.00,,,0.00,Wunderground v.1.15,2013-03-02 14:30:00,
2013-03-02 08:31:00,14.8,9.5,30.28,NNW,343,5.0,5.0,79,0.00,,,0.00,Wunderground v.1.15,2013-03-02 14:31:00,
2013-03-02 08:35:00,14.8,9.2,30.28,North,355,5.0,5.0,78,0.00,,,0.00,Wunderground v.1.15,2013-03-02 14:35:00,
2013-03-02 08:36:00,14.9,9.3,30.28,North,351,5.0,5.0,78,0.00,,,0.00,Wunderground v.1.15,2013-03-02 14:36:00,
2013-03-02 08:38:00,15.0,9.7,30.28,North,349,5.0,6.0,79,0.00,,,0.00,Wunderground v.1.15,2013-03-02 14:38:00,
2013-03-02 08:40:00,15.2,9.6,30.28,NNW,347,5.0,6.0,78,0.00,,,0.00,Wunderground v.1.15,2013-03-02 14:40:00,
2013-03-02 08:41:00,15.2,9.9,30.28,NNW,342,5.0,6.0,79,0.00,,,0.00,Wunderground v.1.15,2013-03-02 14:41:00,
2013-03-02 08:43:00,15.3,9.7,30.28,North,355,5.0,6.0,78,0.00,,,0.00,Wunderground v.1.15,2013-03-02 14:43:00,
2013-03-02 08:50:00,15.7,10.1,30.28,North,9,5.0,5.0,78,0.00,,,0.00,Wunderground v.1.15,2013-03-02 14:50:00,
2013-03-02 08:51:00,15.8,10.2,30.28,North,355,4.0,6.0,78,0.00,,,0.00,Wunderground v.1.15,2013-03-02 14:51:00,
2013-03-02 08:52:00,15.8,10.2,30.28,North,355,4.0,6.0,78,0.00,,,0.00,Wunderground v.1.15,2013-03-02 14:52:00,
2013-03-02 08:57:00,16.1,10.4,30.27,North,5,4.0,7.0,78,0.00,,,0.00,Wunderground v.1.15,2013-03-02 14:57:00,
2013-03-02 08:58:00,16.2,10.5,30.27,North,355,4.0,7.0,78,0.00,,,0.00,Wunderground v.1.15,2013-03-02 14:58:00,
2013-03-02 09:00:00,16.3,10.6,30.27,North,350,4.0,4.0,78,0.00,,,0.00,Wunderground v.1.15,2013-03-02 15:00:00,
2013-03-02 09:06:00,16.8,10.8,30.27,North,5,4.0,6.0,77,0.00,,,0.00,Wunderground v.1.15,2013-03-02 15:06:00,
2013-03-02 09:07:00,16.8,10.8,30.27,North,5,4.0,6.0,77,0.00,,,0.00,Wunderground v.1.15,2013-03-02 15:07:00,
2013-03-02 09:10:00,16.9,10.9,30.27,North,360,4.0,4.0,77,0.00,,,0.00,Wunderground v.1.15,2013-03-02 15:10:00,
2013-03-02 09:13:00,17.0,10.7,30.27,North,355,4.0,5.0,76,0.00,,,0.00,Wunderground v.1.15,2013-03-02 15:13:00,
2013-03-02 09:15:00,17.1,10.8,30.27,North,9,4.0,5.0,76,0.00,,,0.00,Wunderground v.1.15,2013-03-02 15:15:00,
2013-03-02 09:18:00,17.3,11.3,30.27,NNW,347,4.0,5.0,77,0.00,,,0.00,Wunderground v.1.15,2013-03-02 15:18:00,
2013-03-02 09:21:00,17.5,11.2,30.28,North,360,4.0,4.0,76,0.00,,,0.00,Wunderground v.1.15,2013-03-02 15:21:00,
2013-03-02 09:22:00,17.5,11.2,30.28,NNW,344,4.0,4.0,76,0.00,,,0.00,Wunderground v.1.15,2013-03-02 15:22:00,
2013-03-02 09:26:00,17.9,11.6,30.28,North,355,4.0,5.0,76,0.00,,,0.00,Wunderground v.1.15,2013-03-02 15:26:00,
2013-03-02 09:28:00,18.0,11.7,30.28,NNW,335,4.0,5.0,76,0.00,,,0.00,Wunderground v.1.15,2013-03-02 15:28:00,
2013-03-02 09:30:00,18.1,11.8,30.28,NNW,336,5.0,5.0,76,0.00,,,0.00,Wunderground v.1.15,2013-03-02 15:30:00,
2013-03-02 09:32:00,18.2,11.6,30.28,North,350,5.0,7.0,75,0.00,,,0.00,Wunderground v.1.15,2013-03-02 15:32:00,
2013-03-02 09:33:00,18.2,11.6,30.28,NNW,348,5.0,7.0,75,0.00,,,0.00,Wunderground v.1.15,2013-03-02 15:33:00,
2013-03-02 09:40:00,18.4,12.1,30.28,NNW,336,5.0,6.0,76,0.00,,,0.00,Wunderground v.1.15,2013-03-02 15:40:00,
2013-03-02 09:43:00,18.5,11.9,30.28,NNW,332,6.0,10.0,75,0.00,,,0.00,Wunderground v.1.15,2013-03-02 15:43:00,
2013-03-02 09:45:00,18.5,11.9,30.28,NNW,336,6.0,10.0,75,0.00,,,0.00,Wunderground v.1.15,2013-03-02 15:45:00,
2013-03-02 09:46:00,18.5,11.9,30.27,NNW,337,6.0,10.0,75,0.00,,,0.00,Wunderground v.1.15,2013-03-02 15:46:00,
2013-03-02 09:50:00,18.5,11.9,30.28,North,355,6.0,7.0,75,0.00,,,0.00,Wunderground v.1.15,2013-03-02 15:50:00,
2013-03-02 09:51:00,18.4,11.8,30.28,North,355,6.0,7.0,75,0.00,,,0.00,Wunderground v.1.15,2013-03-02 15:51:00,
2013-03-02 09:53:00,18.4,11.5,30.28,NW,321,7.0,7.0,74,0.00,,,0.00,Wunderground v.1.15,2013-03-02 15:53:00,
2013-03-02 09:56:00,18.4,11.8,30.28,NNW,341,6.0,10.0,75,0.00,,,0.00,Wunderground v.1.15,2013-03-02 15:56:00,
2013-03-02 09:57:00,18.4,12.1,30.28,NNW,342,6.0,10.0,76,0.00,,,0.00,Wunderground v.1.15,2013-03-02 15:57:00,
2013-03-02 10:00:00,18.4,11.8,30.28,North,355,6.0,6.0,75,0.00,,,0.00,Wunderground v.1.15,2013-03-02 16:00:00,
2013-03-02 10:02:00,18.6,12.3,30.28,North,349,6.0,6.0,76,0.00,,,0.00,Wunderground v.1.15,2013-03-02 16:02:00,
2013-03-02 10:03:00,18.6,12.3,30.28,NNW,348,6.0,6.0,76,0.00,,,0.00,Wunderground v.1.15,2013-03-02 16:03:00,
2013-03-02 10:07:00,18.6,12.0,30.28,NNW,338,6.0,10.0,75,0.00,,,0.00,Wunderground v.1.15,2013-03-02 16:07:00,
2013-03-02 10:08:00,18.6,12.3,30.28,NNW,340,6.0,10.0,76,0.00,,,0.00,Wunderground v.1.15,2013-03-02 16:08:00,
2013-03-02 10:10:00,18.7,12.4,30.28,North,355,7.0,7.0,76,0.00,,,0.00,Wunderground v.1.15,2013-03-02 16:10:00,
2013-03-02 10:15:00,18.9,12.3,30.28,North,9,6.0,7.0,75,0.00,,,0.00,Wunderground v.1.15,2013-03-02 16:15:00,
2013-03-02 10:16:00,18.9,12.3,30.29,North,355,6.0,8.0,75,0.00,,,0.00,Wunderground v.1.15,2013-03-02 16:16:00,
2013-03-02 10:18:00,18.9,12.3,30.29,NNW,342,6.0,8.0,75,0.00,,,0.00,Wunderground v.1.15,2013-03-02 16:18:00,
2013-03-02 10:21:00,18.9,12.0,30.29,NNW,342,6.0,10.0,74,0.00,,,0.00,Wunderground v.1.15,2013-03-02 16:21:00,
2013-03-02 10:22:00,18.9,12.0,30.29,North,355,6.0,10.0,74,0.00,,,0.00,Wunderground v.1.15,2013-03-02 16:22:00,
2013-03-02 10:23:00,18.9,12.0,30.29,North,360,6.0,10.0,74,0.00,,,0.00,Wunderground v.1.15,2013-03-02 16:23:00,
2013-03-02 10:26:00,18.8,11.9,30.29,NNW,342,7.0,10.0,74,0.00,,,0.00,Wunderground v.1.15,2013-03-02 16:26:00,
2013-03-02 10:28:00,18.8,12.2,30.29,North,9,7.0,10.0,75,0.00,,,0.00,Wunderground v.1.15,2013-03-02 16:28:00,
2013-03-02 10:30:00,18.9,12.0,30.29,North,11,8.0,8.0,74,0.00,,,0.00,Wunderground v.1.15,2013-03-02 16:30:00,
2013-03-02 10:33:00,19.0,12.4,30.29,NNW,343,7.0,10.0,75,0.00,,,0.00,Wunderground v.1.15,2013-03-02 16:33:00,
2013-03-02 10:35:00,19.1,12.5,30.29,North,360,7.0,10.0,75,0.00,,,0.00,Wunderground v.1.15,2013-03-02 16:35:00,
2013-03-02 10:36:00,19.2,12.6,30.29,NNW,346,7.0,10.0,75,0.00,,,0.00,Wunderground v.1.15,2013-03-02 16:36:00,
2013-03-02 10:37:00,19.2,12.6,30.29,North,355,7.0,10.0,75,0.00,,,0.00,Wunderground v.1.15,2013-03-02 16:37:00,
2013-03-02 10:41:00,19.4,12.5,30.29,NNW,346,8.0,9.0,74,0.00,,,0.00,Wunderground v.1.15,2013-03-02 16:41:00,
2013-03-02 10:42:00,19.4,12.5,30.29,North,360,8.0,9.0,74,0.00,,,0.00,Wunderground v.1.15,2013-03-02 16:42:00,
2013-03-02 10:43:00,19.5,12.9,30.29,North,351,7.0,9.0,75,0.00,,,0.00,Wunderground v.1.15,2013-03-02 16:43:00,
2013-03-02 10:50:00,20.2,13.5,30.29,NNW,347,6.0,6.0,75,0.00,,,0.00,Wunderground v.1.15,2013-03-02 16:50:00,
2013-03-02 10:55:00,20.5,13.8,30.29,NE,38,5.0,7.0,75,0.00,,,0.00,Wunderground v.1.15,2013-03-02 16:55:00,
2013-03-02 10:57:00,20.6,13.6,30.29,North,360,5.0,7.0,74,0.00,,,0.00,Wunderground v.1.15,2013-03-02 16:57:00,
2013-03-02 11:02:00,20.8,13.8,30.29,North,9,5.0,8.0,74,0.00,,,0.00,Wunderground v.1.15,2013-03-02 17:02:00,
2013-03-02 11:03:00,20.8,13.8,30.29,NNW,342,6.0,8.0,74,0.00,,,0.00,Wunderground v.1.15,2013-03-02 17:03:00,
2013-03-02 11:07:00,21.1,14.1,30.29,NNW,343,6.0,8.0,74,0.00,,,0.00,Wunderground v.1.15,2013-03-02 17:07:00,
2013-03-02 11:10:00,21.1,14.1,30.29,North,5,6.0,6.0,74,0.00,,,0.00,Wunderground v.1.15,2013-03-02 17:10:00,
2013-03-02 11:11:00,21.2,14.2,30.29,North,355,6.0,6.0,74,0.00,,,0.00,Wunderground v.1.15,2013-03-02 17:11:00,
2013-03-02 11:13:00,21.3,14.3,30.29,NNW,338,6.0,9.0,74,0.00,,,0.00,Wunderground v.1.15,2013-03-02 17:13:00,
2013-03-02 11:15:00,21.3,14.0,30.29,NNW,344,6.0,9.0,73,0.00,,,0.00,Wunderground v.1.15,2013-03-02 17:15:00,
2013-03-02 11:16:00,21.3,14.0,30.29,NNW,340,7.0,9.0,73,0.00,,,0.00,Wunderground v.1.15,2013-03-02 17:16:00,
2013-03-02 11:18:00,21.3,14.0,30.29,North,351,7.0,9.0,73,0.00,,,0.00,Wunderground v.1.15,2013-03-02 17:18:00,
2013-03-02 11:21:00,21.3,14.0,30.28,North,350,7.0,9.0,73,0.00,,,0.00,Wunderground v.1.15,2013-03-02 17:21:00,
2013-03-02 11:22:00,21.4,14.1,30.29,NNW,341,7.0,9.0,73,0.00,,,0.00,Wunderground v.1.15,2013-03-02 17:22:00,
2013-03-02 11:23:00,21.3,14.0,30.28,North,5,7.0,9.0,73,0.00,,,0.00,Wunderground v.1.15,2013-03-02 17:23:00,
2013-03-02 11:27:00,21.3,14.0,30.29,NNW,338,7.0,10.0,73,0.00,,,0.00,Wunderground v.1.15,2013-03-02 17:27:00,
2013-03-02 11:28:00,21.3,14.0,30.29,NNW,345,7.0,10.0,73,0.00,,,0.00,Wunderground v.1.15,2013-03-02 17:28:00,
2013-03-02 11:33:00,21.1,13.5,30.29,North,355,7.0,7.0,72,0.00,,,0.00,Wunderground v.1.15,2013-03-02 17:33:00,
2013-03-02 11:35:00,21.1,13.8,30.28,North,355,7.0,7.0,73,0.00,,,0.00,Wunderground v.1.15,2013-03-02 17:35:00,
2013-03-02 11:36:00,21.1,13.8,30.29,NNW,344,7.0,7.0,73,0.00,,,0.00,Wunderground v.1.15,2013-03-02 17:36:00,
2013-03-02 11:40:00,21.2,14.2,30.29,North,11,6.0,10.0,74,0.00,,,0.00,Wunderground v.1.15,2013-03-02 17:40:00,
2013-03-02 11:43:00,21.3,14.0,30.28,North,5,6.0,10.0,73,0.00,,,0.00,Wunderground v.1.15,2013-03-02 17:43:00,
2013-03-02 11:45:00,21.3,14.0,30.28,North,10,7.0,10.0,73,0.00,,,0.00,Wunderground v.1.15,2013-03-02 17:45:00,
2013-03-02 11:46:00,21.4,14.1,30.28,North,360,7.0,10.0,73,0.00,,,0.00,Wunderground v.1.15,2013-03-02 17:46:00,
2013-03-02 11:48:00,21.5,14.2,30.28,NNW,344,6.0,10.0,73,0.00,,,0.00,Wunderground v.1.15,2013-03-02 17:48:00,
2013-03-02 11:52:00,21.7,14.4,30.28,NNW,337,7.0,12.0,73,0.00,,,0.00,Wunderground v.1.15,2013-03-02 17:52:00,
2013-03-02 11:55:00,21.8,14.5,30.28,NNW,345,6.0,12.0,73,0.00,,,0.00,Wunderground v.1.15,2013-03-02 17:55:00,
2013-03-02 11:56:00,21.8,14.5,30.28,NNW,339,6.0,12.0,73,0.00,,,0.00,Wunderground v.1.15,2013-03-02 17:56:00,
2013-03-02 12:00:00,22.0,15.0,30.28,NNW,329,6.0,8.0,74,0.00,,,0.00,Wunderground v.1.15,2013-03-02 18:00:00,
2013-03-02 12:01:00,22.1,15.1,30.28,NNW,337,6.0,8.0,74,0.00,,,0.00,Wunderground v.1.15,2013-03-02 18:01:00,
2013-03-02 12:02:00,22.2,15.2,30.28,NNW,339,6.0,8.0,74,0.00,,,0.00,Wunderground v.1.15,2013-03-02 18:02:00,
2013-03-02 12:03:00,22.2,15.2,30.28,NNW,337,6.0,8.0,74,0.00,,,0.00,Wunderground v.1.15,2013-03-02 18:03:00,
2013-03-02 12:07:00,22.6,15.6,30.28,NNW,346,6.0,8.0,74,0.00,,,0.00,Wunderground v.1.15,2013-03-02 18:07:00,
2013-03-02 12:10:00,22.6,15.2,30.28,NNW,338,7.0,7.0,73,0.00,,,0.00,Wunderground v.1.15,2013-03-02 18:10:00,
2013-03-02 12:13:00,22.7,15.3,30.28,North,360,7.0,9.0,73,0.00,,,0.00,Wunderground v.1.15,2013-03-02 18:13:00,
2013-03-02 12:15:00,22.7,15.0,30.27,North,11,7.0,9.0,72,0.00,,,0.00,Wunderground v.1.15,2013-03-02 18:15:00,
2013-03-02 12:16:00,22.7,15.0,30.27,NNW,339,7.0,9.0,72,0.00,,,0.00,Wunderground v.1.15,2013-03-02 18:16:00,
2013-03-02 12:20:00,22.7,15.0,30.27,North,351,7.0,7.0,72,0.00,,,0.00,Wunderground v.1.15,2013-03-02 18:20:00,
2013-03-02 12:21:00,22.8,15.1,30.27,North,355,7.0,7.0,72,0.00,,,0.00,Wunderground v.1.15,2013-03-02 18:21:00,
2013-03-02 12:23:00,22.9,15.2,30.27,NNW,348,6.0,8.0,72,0.00,,,0.00,Wunderground v.1.15,2013-03-02 18:23:00,
2013-03-02 12:25:00,22.9,15.2,30.27,North,5,6.0,8.0,72,0.00,,,0.00,Wunderground v.1.15,2013-03-02 18:25:00,
2013-03-02 12:27:00,22.9,15.2,30.27,NNW,338,6.0,8.0,72,0.00,,,0.00,Wunderground v.1.15,2013-03-02 18:27:00,
2013-03-02 12:28:00,22.9,15.5,30.27,North,355,6.0,8.0,73,0.00,,,0.00,Wunderground v.1.15,2013-03-02 18:28:00,
2013-03-02 12:32:00,23.0,15.0,30.27,North,349,7.0,9.0,71,0.00,,,0.00,Wunderground v.1.15,2013-03-02 18:32:00,
2013-03-02 12:36:00,23.0,15.0,30.27,NNW,339,7.0,9.0,71,0.00,,,0.00,Wunderground v.1.15,2013-03-02 18:36:00,
2013-03-02 12:37:00,23.0,15.0,30.27,NNW,346,7.0,9.0,71,0.00,,,0.00,Wunderground v.1.15,2013-03-02 18:37:00,
2013-03-02 12:40:00,23.2,15.5,30.27,NNW,339,7.0,9.0,72,0.00,,,0.00,Wunderground v.1.15,2013-03-02 18:40:00,
2013-03-02 12:42:00,23.3,15.6,30.27,NNW,337,7.0,9.0,72,0.00,,,0.00,Wunderground v.1.15,2013-03-02 18:42:00,
2013-03-02 12:43:00,23.4,15.7,30.26,NNW,341,6.0,10.0,72,0.00,,,0.00,Wunderground v.1.15,2013-03-02 18:43:00,
2013-03-02 12:46:00,23.6,15.2,30.26,North,5,6.0,10.0,70,0.00,,,0.00,Wunderground v.1.15,2013-03-02 18:46:00,
2013-03-02 12:47:00,23.6,15.2,30.26,North,360,6.0,10.0,70,0.00,,,0.00,Wunderground v.1.15,2013-03-02 18:47:00,
2013-03-02 12:48:00,23.5,14.8,30.26,NNW,346,6.0,10.0,69,0.00,,,0.00,Wunderground v.1.15,2013-03-02 18:48:00,
2013-03-02 12:50:00,23.5,15.1,30.26,North,355,6.0,6.0,70,0.00,,,0.00,Wunderground v.1.15,2013-03-02 18:50:00,
2013-03-02 12:52:00,23.6,15.6,30.26,NE,51,6.0,6.0,71,0.00,,,0.00,Wunderground v.1.15,2013-03-02 18:52:00,
2013-03-02 12:53:00,23.7,15.7,30.26,North,5,6.0,6.0,71,0.00,,,0.00,Wunderground v.1.15,2013-03-02 18:53:00,
2013-03-02 12:55:00,23.8,15.4,30.26,NNE,12,6.0,6.0,70,0.00,,,0.00,Wunderground v.1.15,2013-03-02 18:55:00,
2013-03-02 12:57:00,23.8,15.4,30.26,NNW,335,6.0,6.0,70,0.00,,,0.00,Wunderground v.1.15,2013-03-02 18:57:00,
2013-03-02 12:58:00,23.8,15.4,30.26,NNW,348,6.0,6.0,70,0.00,,,0.00,Wunderground v.1.15,2013-03-02 18:58:00,
2013-03-02 13:00:00,23.8,15.1,30.26,North,360,5.0,5.0,69,0.00,,,0.00,Wunderground v.1.15,2013-03-02 19:00:00,
2013-03-02 13:01:00,23.8,15.1,30.26,North,11,6.0,6.0,69,0.00,,,0.00,Wunderground v.1.15,2013-03-02 19:01:00,
2013-03-02 13:05:00,23.8,15.4,30.26,NNW,342,5.0,7.0,70,0.00,,,0.00,Wunderground v.1.15,2013-03-02 19:05:00,
2013-03-02 13:06:00,23.8,15.1,30.25,NNW,344,6.0,7.0,69,0.00,,,0.00,Wunderground v.1.15,2013-03-02 19:06:00,
2013-03-02 13:08:00,23.7,15.3,30.25,NNE,17,6.0,7.0,70,0.00,,,0.00,Wunderground v.1.15,2013-03-02 19:08:00,
2013-03-02 13:10:00,23.7,15.3,30.26,NNW,348,6.0,6.0,70,0.00,,,0.00,Wunderground v.1.15,2013-03-02 19:10:00,
2013-03-02 13:13:00,23.7,15.3,30.25,NW,325,5.0,6.0,70,0.00,,,0.00,Wunderground v.1.15,2013-03-02 19:13:00,
2013-03-02 13:16:00,23.8,15.4,30.25,North,5,5.0,6.0,70,0.00,,,0.00,Wunderground v.1.15,2013-03-02 19:16:00,
2013-03-02 13:18:00,23.8,15.1,30.25,North,5,5.0,6.0,69,0.00,,,0.00,Wunderground v.1.15,2013-03-02 19:18:00,
2013-03-02 13:20:00,23.8,14.8,30.25,North,5,5.0,6.0,68,0.00,,,0.00,Wunderground v.1.15,2013-03-02 19:20:00,
2013-03-02 13:23:00,23.8,14.8,30.25,North,355,6.0,7.0,68,0.00,,,0.00,Wunderground v.1.15,2013-03-02 19:23:00,
2013-03-02 13:25:00,23.8,14.8,30.25,North,351,6.0,7.0,68,0.00,,,0.00,Wunderground v.1.15,2013-03-02 19:25:00,
2013-03-02 13:30:00,24.1,15.4,30.25,North,355,5.0,6.0,69,0.00,,,0.00,Wunderground v.1.15,2013-03-02 19:30:00,
2013-03-02 13:32:00,24.1,15.1,30.25,North,5,5.0,8.0,68,0.00,,,0.00,Wunderground v.1.15,2013-03-02 19:32:00,
2013-03-02 13:35:00,24.0,15.0,30.25,NNW,338,6.0,8.0,68,0.00,,,0.00,Wunderground v.1.15,2013-03-02 19:35:00,
2013-03-02 13:38:00,24.1,15.1,30.25,NNW,344,6.0,10.0,68,0.00,,,0.00,Wunderground v.1.15,2013-03-02 19:38:00,
2013-03-02 13:40:00,24.0,15.3,30.25,NNW,338,6.0,7.0,69,0.00,,,0.00,Wunderground v.1.15,2013-03-02 19:40:00,
2013-03-02 13:45:00,24.2,15.2,30.25,NNW,348,6.0,8.0,68,0.00,,,0.00,Wunderground v.1.15,2013-03-02 19:45:00,
2013-03-02 13:46:00,24.2,15.5,30.25,NNW,342,6.0,9.0,69,0.00,,,0.00,Wunderground v.1.15,2013-03-02 19:46:00,
2013-03-02 13:48:00,24.2,15.2,30.25,NNE,21,6.0,9.0,68,0.00,,,0.00,Wunderground v.1.15,2013-03-02 19:48:00,
2013-03-02 13:50:00,24.2,14.8,30.25,North,9,6.0,6.0,67,0.00,,,0.00,Wunderground v.1.15,2013-03-02 19:50:00,
2013-03-02 13:52:00,24.2,15.5,30.25,NW,310,6.0,7.0,69,0.00,,,0.00,Wunderground v.1.15,2013-03-02 19:52:00,
2013-03-02 13:55:00,24.3,15.6,30.25,North,5,6.0,7.0,69,0.00,,,0.00,Wunderground v.1.15,2013-03-02 19:55:00,
2013-03-02 13:56:00,24.3,15.3,30.25,North,355,6.0,7.0,68,0.00,,,0.00,Wunderground v.1.15,2013-03-02 19:56:00,
2013-03-02 13:57:00,24.3,15.3,30.25,North,355,6.0,7.0,68,0.00,,,0.00,Wunderground v.1.15,2013-03-02 19:57:00,
2013-03-02 14:00:00,24.3,15.6,30.25,NNW,345,5.0,5.0,69,0.00,,,0.00,Wunderground v.1.15,2013-03-02 20:00:00,
2013-03-02 14:01:00,24.4,15.3,30.25,NNW,344,5.0,5.0,68,0.00,,,0.00,Wunderground v.1.15,2013-03-02 20:01:00,
2013-03-02 14:03:00,24.4,15.0,30.25,NNW,335,6.0,6.0,67,0.00,,,0.00,Wunderground v.1.15,2013-03-02 20:03:00,
2013-03-02 14:07:00,24.4,15.0,30.25,NNW,340,6.0,10.0,67,0.00,,,0.00,Wunderground v.1.15,2013-03-02 20:07:00,
2013-03-02 14:10:00,24.4,15.0,30.25,North,9,6.0,9.0,67,0.00,,,0.00,Wunderground v.1.15,2013-03-02 20:10:00,
2013-03-02 14:11:00,24.4,14.7,30.25,NNW,342,6.0,9.0,66,0.00,,,0.00,Wunderground v.1.15,2013-03-02 20:11:00,
2013-03-02 14:13:00,24.4,14.7,30.25,NNE,14,6.0,9.0,66,0.00,,,0.00,Wunderground v.1.15,2013-03-02 20:13:00,
2013-03-02 14:15:00,24.4,14.7,30.25,North,10,6.0,9.0,66,0.00,,,0.00,Wunderground v.1.15,2013-03-02 20:15:00,
2013-03-02 14:17:00,24.4,14.7,30.25,North,355,6.0,9.0,66,0.00,,,0.00,Wunderground v.1.15,2013-03-02 20:17:00,
2013-03-02 14:20:00,24.4,14.7,30.25,NNW,340,6.0,8.0,66,0.00,,,0.00,Wunderground v.1.15,2013-03-02 20:20:00,
2013-03-02 14:21:00,24.4,14.3,30.25,North,351,6.0,8.0,65,0.00,,,0.00,Wunderground v.1.15,2013-03-02 20:21:00,
2013-03-02 14:26:00,24.3,14.9,30.25,NNW,338,6.0,8.0,67,0.00,,,0.00,Wunderground v.1.15,2013-03-02 20:26:00,
2013-03-02 14:28:00,24.3,14.9,30.25,North,351,7.0,11.0,67,0.00,,,0.00,Wunderground v.1.15,2013-03-02 20:28:00,
2013-03-02 14:30:00,24.3,14.9,30.25,NNW,343,7.0,7.0,67,0.00,,,0.00,Wunderground v.1.15,2013-03-02 20:30:00,
2013-03-02 14:33:00,24.3,14.9,30.25,NNE,17,7.0,9.0,67,0.00,,,0.00,Wunderground v.1.15,2013-03-02 20:33:00,
2013-03-02 14:35:00,24.2,14.5,30.25,NNW,330,7.0,10.0,66,0.00,,,0.00,Wunderground v.1.15,2013-03-02 20:35:00,
2013-03-02 14:36:00,24.1,14.4,30.25,North,10,7.0,10.0,66,0.00,,,0.00,Wunderground v.1.15,2013-03-02 20:36:00,
2013-03-02 14:41:00,23.9,14.2,30.25,North,360,7.0,7.0,66,0.00,,,0.00,Wunderground v.1.15,2013-03-02 20:41:00,
2013-03-02 14:42:00,23.9,14.2,30.25,North,360,7.0,7.0,66,0.00,,,0.00,Wunderground v.1.15,2013-03-02 20:42:00,
2013-03-02 14:46:00,23.9,14.5,30.25,NNE,13,6.0,7.0,67,0.00,,,0.00,Wunderground v.1.15,2013-03-02 20:46:00,
2013-03-02 14:47:00,23.9,14.2,30.25,NNE,26,6.0,9.0,66,0.00,,,0.00,Wunderground v.1.15,2013-03-02 20:47:00,
2013-03-02 14:50:00,24.0,14.6,30.25,North,360,6.0,6.0,67,0.00,,,0.00,Wunderground v.1.15,2013-03-02 20:50:00,
2013-03-02 14:51:00,24.1,14.7,30.25,NNW,346,6.0,6.0,67,0.00,,,0.00,Wunderground v.1.15,2013-03-02 20:51:00,
2013-03-02 14:56:00,24.3,14.9,30.25,NNE,15,5.0,7.0,67,0.00,,,0.00,Wunderground v.1.15,2013-03-02 20:56:00,
2013-03-02 14:57:00,24.4,15.0,30.25,NNW,347,5.0,7.0,67,0.00,,,0.00,Wunderground v.1.15,2013-03-02 20:57:00,
2013-03-02 14:58:00,24.4,15.0,30.25,North,5,5.0,7.0,67,0.00,,,0.00,Wunderground v.1.15,2013-03-02 20:58:00,
2013-03-02 15:02:00,24.3,14.6,30.25,North,355,5.0,7.0,66,0.00,,,0.00,Wunderground v.1.15,2013-03-02 21:02:00,
2013-03-02 15:05:00,24.3,14.9,30.25,North,355,5.0,7.0,67,0.00,,,0.00,Wunderground v.1.15,2013-03-02 21:05:00,
2013-03-02 15:06:00,24.3,14.9,30.25,NNW,348,5.0,7.0,67,0.00,,,0.00,Wunderground v.1.15,2013-03-02 21:06:00,
2013-03-02 15:07:00,24.3,14.9,30.24,North,349,5.0,7.0,67,0.00,,,0.00,Wunderground v.1.15,2013-03-02 21:07:00,
2013-03-02 15:10:00,24.4,15.0,30.24,North,10,5.0,5.0,67,0.00,,,0.00,Wunderground v.1.15,2013-03-02 21:10:00,
2013-03-02 15:11:00,24.3,14.6,30.25,North,9,4.0,5.0,66,0.00,,,0.00,Wunderground v.1.15,2013-03-02 21:11:00,
2013-03-02 15:15:00,24.4,15.0,30.24,North,355,4.0,5.0,67,0.00,,,0.00,Wunderground v.1.15,2013-03-02 21:15:00,
2013-03-02 15:18:00,24.5,15.1,30.24,North,360,4.0,5.0,67,0.00,,,0.00,Wunderground v.1.15,2013-03-02 21:18:00,
2013-03-02 15:20:00,24.6,15.2,30.24,NNE,16,4.0,4.0,67,0.00,,,0.00,Wunderground v.1.15,2013-03-02 21:20:00,
2013-03-02 15:22:00,24.7,15.3,30.24,NNE,13,4.0,4.0,67,0.00,,,0.00,Wunderground v.1.15,2013-03-02 21:22:00,
2013-03-02 15:23:00,24.8,15.0,30.24,NNE,19,4.0,6.0,66,0.00,,,0.00,Wunderground v.1.15,2013-03-02 21:23:00,
2013-03-02 15:25:00,24.8,15.0,30.24,NNE,18,4.0,6.0,66,0.00,,,0.00,Wunderground v.1.15,2013-03-02 21:25:00,
2013-03-02 15:30:00,25.1,15.3,30.24,NNE,13,3.0,4.0,66,0.00,,,0.00,Wunderground v.1.15,2013-03-02 21:30:00,
2013-03-02 15:31:00,25.0,15.2,30.24,NNW,344,4.0,5.0,66,0.00,,,0.00,Wunderground v.1.15,2013-03-02 21:31:00,
2013-03-02 15:32:00,25.1,15.3,30.24,NNW,344,4.0,5.0,66,0.00,,,0.00,Wunderground v.1.15,2013-03-02 21:32:00,
2013-03-02 15:35:00,25.1,15.7,30.24,NNW,348,3.0,5.0,67,0.00,,,0.00,Wunderground v.1.15,2013-03-02 21:35:00,
2013-03-02 15:36:00,25.1,15.7,30.24,North,350,3.0,5.0,67,0.00,,,0.00,Wunderground v.1.15,2013-03-02 21:36:00,
2013-03-02 15:37:00,25.2,15.4,30.24,North,355,3.0,5.0,66,0.00,,,0.00,Wunderground v.1.15,2013-03-02 21:37:00,
2013-03-02 15:40:00,25.3,15.5,30.24,North,5,3.0,3.0,66,0.00,,,0.00,Wunderground v.1.15,2013-03-02 21:40:00,
2013-03-02 15:42:00,25.3,15.2,30.24,North,5,3.0,5.0,65,0.00,,,0.00,Wunderground v.1.15,2013-03-02 21:42:00,
2013-03-02 15:43:00,25.4,15.6,30.24,North,360,3.0,5.0,66,0.00,,,0.00,Wunderground v.1.15,2013-03-02 21:43:00,
2013-03-02 15:45:00,25.3,15.2,30.24,North,360,3.0,5.0,65,0.00,,,0.00,Wunderground v.1.15,2013-03-02 21:45:00,
2013-03-02 15:46:00,25.3,15.5,30.24,North,360,3.0,5.0,66,0.00,,,0.00,Wunderground v.1.15,2013-03-02 21:46:00,
2013-03-02 15:47:00,25.2,15.4,30.24,North,360,4.0,5.0,66,0.00,,,0.00,Wunderground v.1.15,2013-03-02 21:47:00,
2013-03-02 15:48:00,25.2,15.4,30.24,North,360,4.0,5.0,66,0.00,,,0.00,Wunderground v.1.15,2013-03-02 21:48:00,
2013-03-02 15:50:00,25.2,15.4,30.24,NNW,347,4.0,4.0,66,0.00,,,0.00,Wunderground v.1.15,2013-03-02 21:50:00,
2013-03-02 15:53:00,25.1,15.0,30.24,North,360,4.0,5.0,65,0.00,,,0.00,Wunderground v.1.15,2013-03-02 21:53:00,
2013-03-02 15:55:00,25.1,15.0,30.24,North,360,4.0,5.0,65,0.00,,,0.00,Wunderground v.1.15,2013-03-02 21:55:00,
2013-03-02 15:57:00,25.0,14.9,30.24,North,355,4.0,5.0,65,0.00,,,0.00,Wunderground v.1.15,2013-03-02 21:57:00,
2013-03-02 15:58:00,25.0,14.9,30.24,North,355,4.0,5.0,65,0.00,,,0.00,Wunderground v.1.15,2013-03-02 21:58:00,
2013-03-02 16:01:00,24.9,14.8,30.24,North,351,4.0,5.0,65,0.00,,,0.00,Wunderground v.1.15,2013-03-02 22:01:00,
2013-03-02 16:05:00,24.8,14.7,30.24,North,351,4.0,5.0,65,0.00,,,0.00,Wunderground v.1.15,2013-03-02 22:05:00,
2013-03-02 16:06:00,24.7,14.6,30.24,North,355,4.0,7.0,65,0.00,,,0.00,Wunderground v.1.15,2013-03-02 22:06:00,
2013-03-02 16:08:00,24.7,14.6,30.24,NNE,15,4.0,7.0,65,0.00,,,0.00,Wunderground v.1.15,2013-03-02 22:08:00,
2013-03-02 16:11:00,24.6,14.9,30.24,NNE,15,4.0,4.0,66,0.00,,,0.00,Wunderground v.1.15,2013-03-02 22:11:00,
2013-03-02 16:13:00,24.6,14.5,30.24,NNE,15,3.0,4.0,65,0.00,,,0.00,Wunderground v.1.15,2013-03-02 22:13:00,
2013-03-02 16:15:00,24.5,14.8,30.24,North,5,3.0,4.0,66,0.00,,,0.00,Wunderground v.1.15,2013-03-02 22:15:00,
2013-03-02 16:17:00,24.5,14.8,30.24,North,355,3.0,4.0,66,0.00,,,0.00,Wunderground v.1.15,2013-03-02 22:17:00,
2013-03-02 16:18:00,24.5,14.8,30.24,North,355,3.0,4.0,66,0.00,,,0.00,Wunderground v.1.15,2013-03-02 22:18:00,
2013-03-02 16:22:00,24.4,14.7,30.24,North,355,3.0,4.0,66,0.00,,,0.00,Wunderground v.1.15,2013-03-02 22:22:00,
2013-03-02 16:23:00,24.4,14.7,30.24,North,355,4.0,4.0,66,0.00,,,0.00,Wunderground v.1.15,2013-03-02 22:23:00,
2013-03-02 16:25:00,24.4,14.7,30.24,North,360,3.0,4.0,66,0.00,,,0.00,Wunderground v.1.15,2013-03-02 22:25:00,
2013-03-02 16:30:00,24.4,14.7,30.24,North,351,3.0,4.0,66,0.00,,,0.00,Wunderground v.1.15,2013-03-02 22:30:00,
2013-03-02 16:32:00,24.3,14.6,30.24,North,360,3.0,4.0,66,0.00,,,0.00,Wunderground v.1.15,2013-03-02 22:32:00,
2013-03-02 16:33:00,24.2,14.1,30.25,North,360,3.0,5.0,65,0.00,,,0.00,Wunderground v.1.15,2013-03-02 22:33:00,
2013-03-02 16:35:00,24.2,14.1,30.25,North,5,4.0,5.0,65,0.00,,,0.00,Wunderground v.1.15,2013-03-02 22:35:00,
2013-03-02 16:37:00,24.1,14.4,30.24,North,5,3.0,5.0,66,0.00,,,0.00,Wunderground v.1.15,2013-03-02 22:37:00,
2013-03-02 16:40:00,24.1,14.4,30.25,North,5,3.0,3.0,66,0.00,,,0.00,Wunderground v.1.15,2013-03-02 22:40:00,
2013-03-02 16:41:00,24.1,14.7,30.24,North,5,3.0,3.0,67,0.00,,,0.00,Wunderground v.1.15,2013-03-02 22:41:00,
2013-03-02 16:45:00,24.1,14.7,30.25,North,5,3.0,3.0,67,0.00,,,0.00,Wunderground v.1.15,2013-03-02 22:45:00,
2013-03-02 16:46:00,24.1,14.7,30.24,North,5,2.0,3.0,67,0.00,,,0.00,Wunderground v.1.15,2013-03-02 22:46:00,
2013-03-02 16:47:00,24.1,14.7,30.25,North,5,2.0,3.0,67,0.00,,,0.00,Wunderground v.1.15,2013-03-02 22:47:00,
2013-03-02 16:48:00,24.1,14.7,30.25,North,5,2.0,3.0,67,0.00,,,0.00,Wunderground v.1.15,2013-03-02 22:48:00,
2013-03-02 16:51:00,24.1,14.7,30.24,North,5,2.0,2.0,67,0.00,,,0.00,Wunderground v.1.15,2013-03-02 22:51:00,
2013-03-02 16:53:00,24.0,14.6,30.24,North,5,2.0,4.0,67,0.00,,,0.00,Wunderground v.1.15,2013-03-02 22:53:00,
2013-03-02 16:55:00,24.0,14.6,30.24,North,5,2.0,4.0,67,0.00,,,0.00,Wunderground v.1.15,2013-03-02 22:55:00,
2013-03-02 16:57:00,23.9,14.5,30.24,North,5,2.0,4.0,67,0.00,,,0.00,Wunderground v.1.15,2013-03-02 22:57:00,
2013-03-02 16:58:00,23.9,14.5,30.25,North,5,2.0,4.0,67,0.00,,,0.00,Wunderground v.1.15,2013-03-02 22:58:00,
2013-03-02 17:00:00,23.8,14.8,30.24,North,5,2.0,2.0,68,0.00,,,0.00,Wunderground v.1.15,2013-03-02 23:00:00,
2013-03-02 17:03:00,23.7,14.7,30.24,North,5,2.0,2.0,68,0.00,,,0.00,Wunderground v.1.15,2013-03-02 23:03:00,
2013-03-02 17:05:00,23.7,14.7,30.24,North,5,2.0,3.0,68,0.00,,,0.00,Wunderground v.1.15,2013-03-02 23:05:00,
2013-03-02 17:08:00,23.6,14.6,30.24,North,5,2.0,3.0,68,0.00,,,0.00,Wunderground v.1.15,2013-03-02 23:08:00,
2013-03-02 17:10:00,23.5,14.5,30.24,North,5,2.0,2.0,68,0.00,,,0.00,Wunderground v.1.15,2013-03-02 23:10:00,
2013-03-02 17:13:00,23.4,14.7,30.24,North,5,2.0,2.0,69,0.00,,,0.00,Wunderground v.1.15,2013-03-02 23:13:00,
2013-03-02 17:15:00,23.4,14.7,30.24,North,5,1.0,2.0,69,0.00,,,0.00,Wunderground v.1.15,2013-03-02 23:15:00,
2013-03-02 17:17:00,23.3,14.6,30.24,North,5,1.0,2.0,69,0.00,,,0.00,Wunderground v.1.15,2013-03-02 23:17:00,
2013-03-02 17:18:00,23.3,14.6,30.24,North,5,1.0,2.0,69,0.00,,,0.00,Wunderground v.1.15,2013-03-02 23:18:00,
2013-03-02 17:20:00,23.2,14.5,30.25,North,5,1.0,1.0,69,0.00,,,0.00,Wunderground v.1.15,2013-03-02 23:20:00,
2013-03-02 17:21:00,23.1,14.4,30.24,North,5,1.0,3.0,69,0.00,,,0.00,Wunderground v.1.15,2013-03-02 23:21:00,
2013-03-02 17:23:00,23.0,14.3,30.25,North,5,1.0,3.0,69,0.00,,,0.00,Wunderground v.1.15,2013-03-02 23:23:00,
2013-03-02 17:25:00,22.9,14.2,30.25,North,5,1.0,3.0,69,0.00,,,0.00,Wunderground v.1.15,2013-03-02 23:25:00,
2013-03-02 17:30:00,22.6,14.3,30.25,North,5,1.0,1.0,70,0.00,,,0.00,Wunderground v.1.15,2013-03-02 23:30:00,
2013-03-02 17:31:00,22.5,14.2,30.25,North,5,1.0,1.0,70,0.00,,,0.00,Wunderground v.1.15,2013-03-02 23:31:00,
2013-03-02 17:32:00,22.4,14.1,30.25,North,5,1.0,1.0,70,0.00,,,0.00,Wunderground v.1.15,2013-03-02 23:32:00,
2013-03-02 17:35:00,22.3,14.0,30.25,North,5,0.0,1.0,70,0.00,,,0.00,Wunderground v.1.15,2013-03-02 23:35:00,
2013-03-02 17:37:00,22.1,13.8,30.25,North,5,0.0,1.0,70,0.00,,,0.00,Wunderground v.1.15,2013-03-02 23:37:00,
2013-03-02 17:38:00,22.1,13.8,30.25,North,5,0.0,1.0,70,0.00,,,0.00,Wunderground v.1.15,2013-03-02 23:38:00,
2013-03-02 17:40:00,21.9,13.9,30.25,North,5,0.0,0.0,71,0.00,,,0.00,Wunderground v.1.15,2013-03-02 23:40:00,
2013-03-02 17:42:00,21.7,13.7,30.25,North,5,0.0,0.0,71,0.00,,,0.00,Wunderground v.1.15,2013-03-02 23:42:00,
2013-03-02 17:47:00,21.3,13.4,30.25,North,5,0.0,0.0,71,0.00,,,0.00,Wunderground v.1.15,2013-03-02 23:47:00,
2013-03-02 17:48:00,21.3,13.4,30.25,North,5,0.0,0.0,71,0.00,,,0.00,Wunderground v.1.15,2013-03-02 23:48:00,
2013-03-02 17:50:00,21.1,13.5,30.25,North,5,0.0,0.0,72,0.00,,,0.00,Wunderground v.1.15,2013-03-02 23:50:00,
2013-03-02 17:51:00,21.1,13.5,30.25,North,5,0.0,0.0,72,0.00,,,0.00,Wunderground v.1.15,2013-03-02 23:51:00,
2013-03-02 17:53:00,20.9,13.6,30.25,North,5,0.0,0.0,73,0.00,,,0.00,Wunderground v.1.15,2013-03-02 23:53:00,
2013-03-02 17:55:00,20.9,13.6,30.25,North,5,0.0,0.0,73,0.00,,,0.00,Wunderground v.1.15,2013-03-02 23:55:00,
2013-03-02 17:57:00,20.7,13.4,30.25,North,5,0.0,0.0,73,0.00,,,0.00,Wunderground v.1.15,2013-03-02 23:57:00,
2013-03-02 18:00:00,20.5,13.2,30.25,North,5,0.0,0.0,73,0.00,,,0.00,Wunderground v.1.15,2013-03-03 00:00:00,
2013-03-02 18:02:00,20.4,13.1,30.25,North,5,0.0,0.0,73,0.00,,,0.00,Wunderground v.1.15,2013-03-03 00:02:00,
2013-03-02 18:05:00,20.2,12.9,30.25,North,5,0.0,0.0,73,0.00,,,0.00,Wunderground v.1.15,2013-03-03 00:05:00,
2013-03-02 18:08:00,20.0,13.0,30.25,North,5,0.0,0.0,74,0.00,,,0.00,Wunderground v.1.15,2013-03-03 00:08:00,
2013-03-02 18:10:00,19.9,12.9,30.25,North,5,0.0,0.0,74,0.00,,,0.00,Wunderground v.1.15,2013-03-03 00:10:00,
2013-03-02 18:13:00,19.6,12.7,30.25,North,5,0.0,0.0,74,0.00,,,0.00,Wunderground v.1.15,2013-03-03 00:13:00,
2013-03-02 18:15:00,19.5,12.6,30.25,North,5,0.0,0.0,74,0.00,,,0.00,Wunderground v.1.15,2013-03-03 00:15:00,
2013-03-02 18:16:00,19.4,12.8,30.25,North,5,0.0,0.0,75,0.00,,,0.00,Wunderground v.1.15,2013-03-03 00:16:00,
2013-03-02 18:20:00,19.1,12.5,30.25,North,5,0.0,1.0,75,0.00,,,0.00,Wunderground v.1.15,2013-03-03 00:20:00,
2013-03-02 18:23:00,18.9,12.3,30.26,North,5,0.0,2.0,75,0.00,,,0.00,Wunderground v.1.15,2013-03-03 00:23:00,
2013-03-02 18:25:00,18.7,12.1,30.26,North,5,0.0,2.0,75,0.00,,,0.00,Wunderground v.1.15,2013-03-03 00:25:00,
2013-03-02 18:28:00,18.5,11.9,30.26,North,5,0.0,2.0,75,0.00,,,0.00,Wunderground v.1.15,2013-03-03 00:28:00,
2013-03-02 18:30:00,18.4,11.8,30.26,North,5,0.0,0.0,75,0.00,,,0.00,Wunderground v.1.15,2013-03-03 00:30:00,
2013-03-02 18:31:00,18.2,11.6,30.26,North,5,0.0,0.0,75,0.00,,,0.00,Wunderground v.1.15,2013-03-03 00:31:00,
2013-03-02 18:33:00,18.1,11.5,30.26,North,5,0.0,0.0,75,0.00,,,0.00,Wunderground v.1.15,2013-03-03 00:33:00,
2013-03-02 18:35:00,17.9,11.3,30.26,North,5,0.0,0.0,75,0.00,,,0.00,Wunderground v.1.15,2013-03-03 00:35:00,
2013-03-02 18:36:00,17.8,11.2,30.26,North,5,0.0,0.0,75,0.00,,,0.00,Wunderground v.1.15,2013-03-03 00:36:00,
2013-03-02 18:40:00,17.4,10.8,30.26,North,5,0.0,0.0,75,0.00,,,0.00,Wunderground v.1.15,2013-03-03 00:40:00,
2013-03-02 18:41:00,17.3,10.7,30.26,North,5,0.0,0.0,75,0.00,,,0.00,Wunderground v.1.15,2013-03-03 00:41:00,
2013-03-02 18:42:00,17.2,10.9,30.26,North,5,0.0,0.0,76,0.00,,,0.00,Wunderground v.1.15,2013-03-03 00:42:00,
2013-03-02 18:45:00,16.9,10.6,30.26,North,5,0.0,0.0,76,0.00,,,0.00,Wunderground v.1.15,2013-03-03 00:45:00,
2013-03-02 18:47:00,16.7,10.1,30.26,North,5,0.0,0.0,75,0.00,,,0.00,Wunderground v.1.15,2013-03-03 00:47:00,
2013-03-02 18:50:00,16.4,10.2,30.27,North,5,0.0,0.0,76,0.00,,,0.00,Wunderground v.1.15,2013-03-03 00:50:00,
2013-03-02 18:51:00,16.3,10.1,30.26,North,5,0.0,0.0,76,0.00,,,0.00,Wunderground v.1.15,2013-03-03 00:51:00,
2013-03-02 18:53:00,16.1,10.2,30.26,North,5,0.0,0.0,77,0.00,,,0.00,Wunderground v.1.15,2013-03-03 00:53:00,
2013-03-02 18:55:00,15.9,10.0,30.26,North,5,0.0,0.0,77,0.00,,,0.00,Wunderground v.1.15,2013-03-03 00:55:00,
2013-03-02 18:57:00,15.7,9.8,30.26,North,5,0.0,0.0,77,0.00,,,0.00,Wunderground v.1.15,2013-03-03 00:57:00,
2013-03-02 19:03:00,15.2,9.3,30.26,North,5,0.0,0.0,77,0.00,,,0.00,Wunderground v.1.15,2013-03-03 01:03:00,
2013-03-02 19:05:00,15.0,9.1,30.26,North,5,0.0,0.0,77,0.00,,,0.00,Wunderground v.1.15,2013-03-03 01:05:00,
2013-03-02 19:10:00,14.5,8.9,30.25,North,5,0.0,0.0,78,0.00,,,0.00,Wunderground v.1.15,2013-03-03 01:10:00,
2013-03-02 19:11:00,14.4,8.8,30.25,North,5,0.0,0.0,78,0.00,,,0.00,Wunderground v.1.15,2013-03-03 01:11:00,
2013-03-02 19:15:00,14.2,8.9,30.25,North,5,0.0,0.0,79,0.00,,,0.00,Wunderground v.1.15,2013-03-03 01:15:00,
2013-03-02 19:20:00,14.0,9.2,30.25,North,5,0.0,0.0,81,0.00,,,0.00,Wunderground v.1.15,2013-03-03 01:20:00,
2013-03-02 19:22:00,13.9,9.1,30.25,North,5,0.0,0.0,81,0.00,,,0.00,Wunderground v.1.15,2013-03-03 01:22:00,
2013-03-02 19:25:00,13.8,9.0,30.25,North,5,0.0,0.0,81,0.00,,,0.00,Wunderground v.1.15,2013-03-03 01:25:00,
2013-03-02 19:27:00,13.7,9.0,30.25,North,5,0.0,0.0,81,0.00,,,0.00,Wunderground v.1.15,2013-03-03 01:27:00,
2013-03-02 19:30:00,13.5,8.8,30.24,North,5,0.0,0.0,81,0.00,,,0.00,Wunderground v.1.15,2013-03-03 01:30:00,
2013-03-02 19:31:00,13.4,8.7,30.24,North,5,0.0,0.0,81,0.00,,,0.00,Wunderground v.1.15,2013-03-03 01:31:00,
2013-03-02 19:32:00,13.4,8.7,30.24,North,5,0.0,0.0,81,0.00,,,0.00,Wunderground v.1.15,2013-03-03 01:32:00,
2013-03-02 19:35:00,13.2,8.2,30.24,North,5,0.0,0.0,80,0.00,,,0.00,Wunderground v.1.15,2013-03-03 01:35:00,
2013-03-02 19:36:00,13.0,8.0,30.24,North,5,0.0,0.0,80,0.00,,,0.00,Wunderground v.1.15,2013-03-03 01:36:00,
2013-03-02 19:37:00,12.9,8.2,30.24,North,5,0.0,0.0,81,0.00,,,0.00,Wunderground v.1.15,2013-03-03 01:37:00,
2013-03-02 19:41:00,12.7,8.0,30.24,North,5,0.0,0.0,81,0.00,,,0.00,Wunderground v.1.15,2013-03-03 01:41:00,
2013-03-02 19:42:00,12.7,8.0,30.24,North,5,0.0,0.0,81,0.00,,,0.00,Wunderground v.1.15,2013-03-03 01:42:00,
2013-03-02 19:43:00,12.6,8.1,30.24,North,5,0.0,0.0,82,0.00,,,0.00,Wunderground v.1.15,2013-03-03 01:43:00,
2013-03-02 19:45:00,12.6,8.1,30.24,North,5,0.0,0.0,82,0.00,,,0.00,Wunderground v.1.15,2013-03-03 01:45:00,
2013-03-02 19:47:00,12.5,8.0,30.24,North,5,0.0,0.0,82,0.00,,,0.00,Wunderground v.1.15,2013-03-03 01:47:00,
2013-03-02 19:50:00,12.5,8.3,30.25,North,5,0.0,0.0,83,0.00,,,0.00,Wunderground v.1.15,2013-03-03 01:50:00,
2013-03-02 19:51:00,12.5,8.3,30.24,North,5,0.0,0.0,83,0.00,,,0.00,Wunderground v.1.15,2013-03-03 01:51:00,
2013-03-02 19:55:00,12.5,8.3,30.24,North,5,0.0,0.0,83,0.00,,,0.00,Wunderground v.1.15,2013-03-03 01:55:00,
2013-03-02 19:56:00,12.5,8.3,30.25,North,5,0.0,0.0,83,0.00,,,0.00,Wunderground v.1.15,2013-03-03 01:56:00,
2013-03-02 20:00:00,12.4,8.2,30.24,North,5,0.0,0.0,83,0.00,,,0.00,Wunderground v.1.15,2013-03-03 02:00:00,
2013-03-02 20:01:00,12.4,8.2,30.24,North,5,0.0,0.0,83,0.00,,,0.00,Wunderground v.1.15,2013-03-03 02:01:00,
2013-03-02 20:06:00,12.4,8.5,30.25,North,5,0.0,0.0,84,0.00,,,0.00,Wunderground v.1.15,2013-03-03 02:06:00,
2013-03-02 20:07:00,12.4,8.5,30.25,North,5,0.0,0.0,84,0.00,,,0.00,Wunderground v.1.15,2013-03-03 02:07:00,
2013-03-02 20:08:00,12.4,8.5,30.25,North,5,0.0,0.0,84,0.00,,,0.00,Wunderground v.1.15,2013-03-03 02:08:00,
2013-03-02 20:12:00,12.5,8.6,30.25,North,5,0.0,0.0,84,0.00,,,0.00,Wunderground v.1.15,2013-03-03 02:12:00,
2013-03-02 20:13:00,12.5,8.6,30.25,North,5,0.0,0.0,84,0.00,,,0.00,Wunderground v.1.15,2013-03-03 02:13:00,
2013-03-02 20:15:00,12.5,8.6,30.25,North,5,0.0,0.0,84,0.00,,,0.00,Wunderground v.1.15,2013-03-03 02:15:00,
2013-03-02 20:17:00,12.5,8.3,30.25,North,5,0.0,0.0,83,0.00,,,0.00,Wunderground v.1.15,2013-03-03 02:17:00,
2013-03-02 20:18:00,12.5,8.3,30.25,North,5,0.0,0.0,83,0.00,,,0.00,Wunderground v.1.15,2013-03-03 02:18:00,
2013-03-02 20:22:00,12.5,8.3,30.25,North,5,0.0,0.0,83,0.00,,,0.00,Wunderground v.1.15,2013-03-03 02:22:00,
2013-03-02 20:23:00,12.4,8.2,30.25,North,5,0.0,0.0,83,0.00,,,0.00,Wunderground v.1.15,2013-03-03 02:23:00,
2013-03-02 20:25:00,12.4,8.2,30.25,North,5,0.0,0.0,83,0.00,,,0.00,Wunderground v.1.15,2013-03-03 02:25:00,
2013-03-02 20:26:00,12.3,8.1,30.25,North,5,0.0,0.0,83,0.00,,,0.00,Wunderground v.1.15,2013-03-03 02:26:00,
2013-03-02 20:27:00,12.3,8.1,30.25,North,5,0.0,0.0,83,0.00,,,0.00,Wunderground v.1.15,2013-03-03 02:27:00,
2013-03-02 20:30:00,12.2,7.8,30.25,North,5,0.0,0.0,82,0.00,,,0.00,Wunderground v.1.15,2013-03-03 02:30:00,
2013-03-02 20:32:00,12.1,7.7,30.25,North,5,0.0,0.0,82,0.00,,,0.00,Wunderground v.1.15,2013-03-03 02:32:00,
2013-03-02 20:35:00,11.9,7.5,30.25,North,5,0.0,0.0,82,0.00,,,0.00,Wunderground v.1.15,2013-03-03 02:35:00,
2013-03-02 20:37:00,11.7,7.3,30.25,North,5,0.0,0.0,82,0.00,,,0.00,Wunderground v.1.15,2013-03-03 02:37:00,
2013-03-02 20:38:00,11.7,7.3,30.25,North,5,0.0,0.0,82,0.00,,,0.00,Wunderground v.1.15,2013-03-03 02:38:00,
2013-03-02 20:41:00,11.4,7.0,30.25,North,5,0.0,0.0,82,0.00,,,0.00,Wunderground v.1.15,2013-03-03 02:41:00,
2013-03-02 20:42:00,11.3,6.9,30.25,North,5,0.0,0.0,82,0.00,,,0.00,Wunderground v.1.15,2013-03-03 02:42:00,
2013-03-02 20:45:00,11.1,6.7,30.25,North,5,0.0,0.0,82,0.00,,,0.00,Wunderground v.1.15,2013-03-03 02:45:00,
2013-03-02 20:47:00,10.9,6.5,30.25,North,5,0.0,0.0,82,0.00,,,0.00,Wunderground v.1.15,2013-03-03 02:47:00,
2013-03-02 20:48:00,10.8,6.4,30.25,North,5,0.0,0.0,82,0.00,,,0.00,Wunderground v.1.15,2013-03-03 02:48:00,
2013-03-02 20:52:00,10.5,6.1,30.25,North,5,0.0,0.0,82,0.00,,,0.00,Wunderground v.1.15,2013-03-03 02:52:00,
2013-03-02 20:55:00,10.3,5.9,30.25,North,5,0.0,0.0,82,0.00,,,0.00,Wunderground v.1.15,2013-03-03 02:55:00,
2013-03-02 20:57:00,10.1,5.7,30.25,North,5,0.0,0.0,82,0.00,,,0.00,Wunderground v.1.15,2013-03-03 02:57:00,
2013-03-02 21:02:00,9.6,5.2,30.25,North,5,0.0,0.0,82,0.00,,,0.00,Wunderground v.1.15,2013-03-03 03:02:00,
2013-03-02 21:05:00,9.5,5.4,30.25,North,5,0.0,0.0,83,0.00,,,0.00,Wunderground v.1.15,2013-03-03 03:05:00,
2013-03-02 21:08:00,9.4,5.5,30.25,North,5,0.0,0.0,84,0.00,,,0.00,Wunderground v.1.15,2013-03-03 03:08:00,
2013-03-02 21:10:00,9.4,5.5,30.25,North,5,0.0,0.0,84,0.00,,,0.00,Wunderground v.1.15,2013-03-03 03:10:00,
2013-03-02 21:11:00,9.4,5.5,30.25,North,5,0.0,0.0,84,0.00,,,0.00,Wunderground v.1.15,2013-03-03 03:11:00,
2013-03-02 21:13:00,9.3,5.4,30.25,North,5,0.0,0.0,84,0.00,,,0.00,Wunderground v.1.15,2013-03-03 03:13:00,
2013-03-02 21:16:00,9.2,5.3,30.25,North,5,0.0,0.0,84,0.00,,,0.00,Wunderground v.1.15,2013-03-03 03:16:00,
2013-03-02 21:20:00,9.1,5.5,30.25,North,5,0.0,0.0,85,0.00,,,0.00,Wunderground v.1.15,2013-03-03 03:20:00,
2013-03-02 21:22:00,9.0,5.4,30.25,North,5,0.0,0.0,85,0.00,,,0.00,Wunderground v.1.15,2013-03-03 03:22:00,
2013-03-02 21:26:00,8.9,5.3,30.25,North,5,0.0,0.0,85,0.00,,,0.00,Wunderground v.1.15,2013-03-03 03:26:00,
2013-03-02 21:27:00,8.9,5.3,30.25,North,5,0.0,0.0,85,0.00,,,0.00,Wunderground v.1.15,2013-03-03 03:27:00,
2013-03-02 21:28:00,8.8,5.2,30.24,North,5,0.0,0.0,85,0.00,,,0.00,Wunderground v.1.15,2013-03-03 03:28:00,
2013-03-02 21:30:00,8.7,4.9,30.24,North,5,0.0,0.0,84,0.00,,,0.00,Wunderground v.1.15,2013-03-03 03:30:00,
2013-03-02 21:35:00,8.6,5.0,30.25,North,5,0.0,0.0,85,0.00,,,0.00,Wunderground v.1.15,2013-03-03 03:35:00,
2013-03-02 21:37:00,8.6,5.3,30.25,North,5,0.0,0.0,86,0.00,,,0.00,Wunderground v.1.15,2013-03-03 03:37:00,
2013-03-02 21:41:00,8.7,5.4,30.25,North,5,0.0,0.0,86,0.00,,,0.00,Wunderground v.1.15,2013-03-03 03:41:00,
2013-03-02 21:45:00,8.8,5.7,30.25,North,5,0.0,0.0,87,0.00,,,0.00,Wunderground v.1.15,2013-03-03 03:45:00,
2013-03-02 21:46:00,8.8,5.5,30.25,North,5,0.0,0.0,86,0.00,,,0.00,Wunderground v.1.15,2013-03-03 03:46:00,
2013-03-02 21:47:00,8.9,5.6,30.25,North,5,0.0,0.0,86,0.00,,,0.00,Wunderground v.1.15,2013-03-03 03:47:00,
2013-03-02 21:50:00,9.0,5.9,30.25,North,5,0.0,0.0,87,0.00,,,0.00,Wunderground v.1.15,2013-03-03 03:50:00,
2013-03-02 21:52:00,9.0,5.7,30.25,North,5,0.0,0.0,86,0.00,,,0.00,Wunderground v.1.15,2013-03-03 03:52:00,
2013-03-02 21:56:00,8.9,5.3,30.25,North,5,0.0,0.0,85,0.00,,,0.00,Wunderground v.1.15,2013-03-03 03:56:00,
2013-03-02 21:57:00,8.8,5.2,30.25,North,5,0.0,0.0,85,0.00,,,0.00,Wunderground v.1.15,2013-03-03 03:57:00,
2013-03-02 22:00:00,8.7,5.1,30.25,North,5,0.0,0.0,85,0.00,,,0.00,Wunderground v.1.15,2013-03-03 04:00:00,
2013-03-02 22:01:00,8.6,5.0,30.25,North,5,0.0,0.0,85,0.00,,,0.00,Wunderground v.1.15,2013-03-03 04:01:00,
2013-03-02 22:02:00,8.5,4.9,30.25,North,5,0.0,0.0,85,0.00,,,0.00,Wunderground v.1.15,2013-03-03 04:02:00,
2013-03-02 22:05:00,8.3,4.7,30.25,North,5,0.0,0.0,85,0.00,,,0.00,Wunderground v.1.15,2013-03-03 04:05:00,
2013-03-02 22:07:00,8.1,4.5,30.25,North,5,0.0,0.0,85,0.00,,,0.00,Wunderground v.1.15,2013-03-03 04:07:00,
2013-03-02 22:08:00,8.1,4.3,30.25,North,5,0.0,0.0,84,0.00,,,0.00,Wunderground v.1.15,2013-03-03 04:08:00,
2013-03-02 22:11:00,7.9,4.1,30.25,North,5,0.0,0.0,84,0.00,,,0.00,Wunderground v.1.15,2013-03-03 04:11:00,
2013-03-02 22:13:00,7.7,3.9,30.25,North,5,0.0,0.0,84,0.00,,,0.00,Wunderground v.1.15,2013-03-03 04:13:00,
2013-03-02 22:15:00,7.6,4.0,30.25,North,5,0.0,0.0,85,0.00,,,0.00,Wunderground v.1.15,2013-03-03 04:15:00,
2013-03-02 22:18:00,7.5,3.9,30.25,North,5,0.0,0.0,85,0.00,,,0.00,Wunderground v.1.15,2013-03-03 04:18:00,
2013-03-02 22:20:00,7.5,3.9,30.25,North,5,0.0,0.0,85,0.00,,,0.00,Wunderground v.1.15,2013-03-03 04:20:00,
2013-03-02 22:21:00,7.4,3.8,30.25,North,5,0.0,0.0,85,0.00,,,0.00,Wunderground v.1.15,2013-03-03 04:21:00,
2013-03-02 22:22:00,7.4,3.8,30.25,North,5,0.0,0.0,85,0.00,,,0.00,Wunderground v.1.15,2013-03-03 04:22:00,
2013-03-02 22:25:00,7.4,4.1,30.25,North,5,0.0,0.0,86,0.00,,,0.00,Wunderground v.1.15,2013-03-03 04:25:00,
2013-03-02 22:26:00,7.4,4.1,30.25,North,5,0.0,0.0,86,0.00,,,0.00,Wunderground v.1.15,2013-03-03 04:26:00,
2013-03-02 22:30:00,7.4,4.1,30.24,North,5,0.0,0.0,86,0.00,,,0.00,Wunderground v.1.15,2013-03-03 04:30:00,
2013-03-02 22:31:00,7.4,4.1,30.24,North,5,0.0,0.0,86,0.00,,,0.00,Wunderground v.1.15,2013-03-03 04:31:00,
2013-03-02 22:32:00,7.5,4.4,30.24,North,5,0.0,0.0,87,0.00,,,0.00,Wunderground v.1.15,2013-03-03 04:32:00,
2013-03-02 22:35:00,7.6,4.5,30.24,North,5,0.0,0.0,87,0.00,,,0.00,Wunderground v.1.15,2013-03-03 04:35:00,
2013-03-02 22:37:00,7.6,4.5,30.24,North,5,0.0,0.0,87,0.00,,,0.00,Wunderground v.1.15,2013-03-03 04:37:00,
2013-03-02 22:40:00,7.7,4.6,30.24,North,5,0.0,0.0,87,0.00,,,0.00,Wunderground v.1.15,2013-03-03 04:40:00,
2013-03-02 22:42:00,7.7,4.6,30.24,North,5,0.0,0.0,87,0.00,,,0.00,Wunderground v.1.15,2013-03-03 04:42:00,
2013-03-02 22:43:00,7.8,4.7,30.24,North,5,0.0,0.0,87,0.00,,,0.00,Wunderground v.1.15,2013-03-03 04:43:00,
2013-03-02 22:46:00,7.7,4.6,30.24,North,5,0.0,0.0,87,0.00,,,0.00,Wunderground v.1.15,2013-03-03 04:46:00,
2013-03-02 22:47:00,7.7,4.6,30.24,North,5,0.0,0.0,87,0.00,,,0.00,Wunderground v.1.15,2013-03-03 04:47:00,
2013-03-02 22:50:00,7.7,4.6,30.24,North,5,0.0,0.0,87,0.00,,,0.00,Wunderground v.1.15,2013-03-03 04:50:00,
2013-03-02 22:52:00,7.7,4.4,30.24,North,5,0.0,0.0,86,0.00,,,0.00,Wunderground v.1.15,2013-03-03 04:52:00,
2013-03-02 22:53:00,7.6,4.3,30.24,North,5,0.0,0.0,86,0.00,,,0.00,Wunderground v.1.15,2013-03-03 04:53:00,
2013-03-02 22:55:00,7.6,4.3,30.24,North,5,0.0,0.0,86,0.00,,,0.00,Wunderground v.1.15,2013-03-03 04:55:00,
2013-03-02 22:57:00,7.5,4.2,30.24,North,5,0.0,0.0,86,0.00,,,0.00,Wunderground v.1.15,2013-03-03 04:57:00,
2013-03-02 23:00:00,7.4,4.1,30.24,North,5,0.0,0.0,86,0.00,,,0.00,Wunderground v.1.15,2013-03-03 05:00:00,
2013-03-02 23:02:00,7.4,4.1,30.24,North,5,0.0,0.0,86,0.00,,,0.00,Wunderground v.1.15,2013-03-03 05:02:00,
2013-03-02 23:03:00,7.4,4.1,30.24,North,5,0.0,0.0,86,0.00,,,0.00,Wunderground v.1.15,2013-03-03 05:03:00,
2013-03-02 23:07:00,7.2,3.9,30.24,North,5,0.0,0.0,86,0.00,,,0.00,Wunderground v.1.15,2013-03-03 05:07:00,
2013-03-02 23:11:00,7.2,3.9,30.23,North,5,0.0,0.0,86,0.00,,,0.00,Wunderground v.1.15,2013-03-03 05:11:00,
2013-03-02 23:12:00,7.2,3.9,30.23,North,5,0.0,0.0,86,0.00,,,0.00,Wunderground v.1.15,2013-03-03 05:12:00,
2013-03-02 23:15:00,7.1,3.8,30.23,North,5,0.0,0.0,86,0.00,,,0.00,Wunderground v.1.15,2013-03-03 05:15:00,
2013-03-02 23:18:00,7.0,3.7,30.23,North,5,0.0,0.0,86,0.00,,,0.00,Wunderground v.1.15,2013-03-03 05:18:00,
2013-03-02 23:20:00,6.9,3.6,30.23,North,5,0.0,0.0,86,0.00,,,0.00,Wunderground v.1.15,2013-03-03 05:20:00,
2013-03-02 23:25:00,6.7,3.1,30.23,North,5,0.0,0.0,85,0.00,,,0.00,Wunderground v.1.15,2013-03-03 05:25:00,
2013-03-02 23:26:00,6.6,3.0,30.23,North,5,0.0,0.0,85,0.00,,,0.00,Wunderground v.1.15,2013-03-03 05:26:00,
2013-03-02 23:28:00,6.5,3.2,30.23,North,5,0.0,0.0,86,0.00,,,0.00,Wunderground v.1.15,2013-03-03 05:28:00,
2013-03-02 23:31:00,6.3,2.8,30.23,North,5,0.0,0.0,85,0.00,,,0.00,Wunderground v.1.15,2013-03-03 05:31:00,
2013-03-02 23:32:00,6.2,2.7,30.23,North,5,0.0,0.0,85,0.00,,,0.00,Wunderground v.1.15,2013-03-03 05:32:00,
2013-03-02 23:33:00,6.2,2.7,30.23,North,5,0.0,0.0,85,0.00,,,0.00,Wunderground v.1.15,2013-03-03 05:33:00,
2013-03-02 23:35:00,6.1,2.6,30.22,North,5,0.0,0.0,85,0.00,,,0.00,Wunderground v.1.15,2013-03-03 05:35:00,
2013-03-02 23:36:00,6.0,2.5,30.23,North,5,0.0,0.0,85,0.00,,,0.00,Wunderground v.1.15,2013-03-03 05:36:00,
2013-03-02 23:38:00,5.9,2.4,30.23,North,5,0.0,0.0,85,0.00,,,0.00,Wunderground v.1.15,2013-03-03 05:38:00,
2013-03-02 23:41:00,5.8,2.5,30.22,North,5,0.0,0.0,86,0.00,,,0.00,Wunderground v.1.15,2013-03-03 05:41:00,
2013-03-02 23:42:00,5.7,2.4,30.22,North,5,0.0,0.0,86,0.00,,,0.00,Wunderground v.1.15,2013-03-03 05:42:00,
2013-03-02 23:43:00,5.6,2.3,30.22,North,5,0.0,0.0,86,0.00,,,0.00,Wunderground v.1.15,2013-03-03 05:43:00,
2013-03-02 23:45:00,5.6,2.3,30.22,North,5,0.0,0.0,86,0.00,,,0.00,Wunderground v.1.15,2013-03-03 05:45:00,
2013-03-02 23:48:00,5.5,2.2,30.22,North,5,0.0,0.0,86,0.00,,,0.00,Wunderground v.1.15,2013-03-03 05:48:00,
2013-03-02 23:50:00,5.4,2.1,30.22,North,5,0.0,0.0,86,0.00,,,0.00,Wunderground v.1.15,2013-03-03 05:50:00,
2013-03-02 23:55:00,5.3,2.0,30.23,North,5,0.0,0.0,86,0.00,,,0.00,Wunderground v.1.15,2013-03-03 05:55:00,
2013-03-02 23:56:00,5.3,2.0,30.23,North,5,0.0,0.0,86,0.00,,,0.00,Wunderground v.1.15,2013-03-03 05:56:00,